Time,TemperatureF,DewpointF,PressureIn,WindDirection,WindDirectionDegrees,WindSpeedMPH,WindSpeedGustMPH,Humidity,HourlyPrecipIn,Conditions,Clouds,dailyrainin,SoftwareType,DateUTC
2013-09-10 00:00:00,77.2,64.5,29.80,SW,226,4.5,6.9,65,0.00,CLR,,0.00,WeatherDisplay:10.37,2013-09-10 05:00:00,
2013-09-10 00:01:00,77.3,64.6,29.80,SW,224,3.9,6.9,65,0.00,CLR,,0.00,WeatherDisplay:10.37,2013-09-10 05:01:00,
2013-09-10 00:02:00,77.3,64.6,29.80,SSW,206,4.7,6.9,65,0.00,CLR,,0.00,WeatherDisplay:10.37,2013-09-10 05:02:00,
2013-09-10 00:03:00,77.3,64.6,29.80,SW,216,3.5,6.9,65,0.00,CLR,,0.00,WeatherDisplay:10.37,2013-09-10 05:03:00,
2013-09-10 00:06:00,77.2,64.5,29.80,WSW,241,4.5,5.8,65,0.00,CLR,,0.00,WeatherDisplay:10.37,2013-09-10 05:06:00,
2013-09-10 00:07:00,77.2,64.5,29.80,WSW,247,4.6,5.8,65,0.00,CLR,,0.00,WeatherDisplay:10.37,2013-09-10 05:07:00,
2013-09-10 00:08:00,77.3,64.6,29.80,SSW,196,3.5,4.6,65,0.00,CLR,,0.00,WeatherDisplay:10.37,2013-09-10 05:08:00,
2013-09-10 00:12:00,77.2,64.5,29.80,SSW,206,4.2,5.8,65,0.00,CLR,,0.00,WeatherDisplay:10.37,2013-09-10 05:12:00,
2013-09-10 00:13:00,77.2,64.5,29.80,West,272,3.7,6.3,65,0.00,CLR,,0.00,WeatherDisplay:10.37,2013-09-10 05:13:00,
2013-09-10 00:14:00,77.1,64.4,29.80,WSW,244,4.2,8.1,65,0.00,CLR,,0.00,WeatherDisplay:10.37,2013-09-10 05:14:00,
2013-09-10 00:17:00,77.1,64.4,29.80,WSW,248,4.4,6.9,65,0.00,CLR,,0.00,WeatherDisplay:10.37,2013-09-10 05:17:00,
2013-09-10 00:18:00,77.0,63.9,29.80,SW,227,4.3,6.9,64,0.00,CLR,,0.00,WeatherDisplay:10.37,2013-09-10 05:18:00,
2013-09-10 00:20:00,76.9,63.8,29.80,SW,232,4.6,7.7,64,0.00,CLR,,0.00,WeatherDisplay:10.37,2013-09-10 05:20:00,
2013-09-10 00:22:00,77.0,63.9,29.80,SW,234,5.3,8.1,64,0.00,CLR,,0.00,WeatherDisplay:10.37,2013-09-10 05:22:00,
2013-09-10 00:23:00,77.0,63.9,29.80,SSW,198,5.3,8.1,64,0.00,CLR,,0.00,WeatherDisplay:10.37,2013-09-10 05:23:00,
2013-09-10 00:25:00,76.9,63.8,29.80,SW,224,4.9,5.8,64,0.00,CLR,,0.00,WeatherDisplay:10.37,2013-09-10 05:25:00,
2013-09-10 00:27:00,76.9,63.8,29.80,South,176,4.7,4.7,64,0.00,CLR,,0.00,WeatherDisplay:10.37,2013-09-10 05:27:00,
2013-09-10 00:28:00,76.9,63.8,29.80,SW,223,4.6,8.1,64,0.00,CLR,,0.00,WeatherDisplay:10.37,2013-09-10 05:28:00,
2013-09-10 00:29:00,76.9,63.8,29.80,SW,234,5.0,9.2,64,0.00,CLR,,0.00,WeatherDisplay:10.37,2013-09-10 05:29:00,
2013-09-10 00:31:00,76.9,63.8,29.80,WSW,247,3.7,5.8,64,0.00,CLR,,0.00,WeatherDisplay:10.37,2013-09-10 05:31:00,
2013-09-10 00:32:00,76.9,63.8,29.80,SW,226,4.2,5.8,64,0.00,CLR,,0.00,WeatherDisplay:10.37,2013-09-10 05:32:00,
2013-09-10 00:33:00,76.9,63.8,29.80,WSW,244,5.1,9.2,64,0.00,CLR,,0.00,WeatherDisplay:10.37,2013-09-10 05:33:00,
2013-09-10 00:34:00,76.9,63.8,29.80,SW,232,5.5,8.1,64,0.00,CLR,,0.00,WeatherDisplay:10.37,2013-09-10 05:34:00,
2013-09-10 00:37:00,76.8,63.7,29.81,West,261,4.7,8.1,64,0.00,CLR,,0.00,WeatherDisplay:10.37,2013-09-10 05:37:00,
2013-09-10 00:38:00,76.8,63.7,29.81,SW,226,4.0,5.8,64,0.00,CLR,,0.00,WeatherDisplay:10.37,2013-09-10 05:38:00,
2013-09-10 00:39:00,76.9,63.8,29.81,South,175,3.9,6.9,64,0.00,CLR,,0.00,WeatherDisplay:10.37,2013-09-10 05:39:00,
2013-09-10 00:42:00,76.8,63.7,29.81,SW,232,4.1,6.9,64,0.00,CLR,,0.00,WeatherDisplay:10.37,2013-09-10 05:42:00,
2013-09-10 00:43:00,76.9,63.8,29.81,WSW,253,3.9,5.8,64,0.00,CLR,,0.00,WeatherDisplay:10.37,2013-09-10 05:43:00,
2013-09-10 00:44:00,76.8,63.7,29.81,WSW,239,3.0,5.8,64,0.00,CLR,,0.00,WeatherDisplay:10.37,2013-09-10 05:44:00,
2013-09-10 00:45:00,76.8,63.7,29.81,SSW,213,2.9,6.0,64,0.00,CLR,,0.00,WeatherDisplay:10.37,2013-09-10 05:45:00,
2013-09-10 00:47:00,76.8,63.7,29.81,WSW,248,3.6,4.6,64,0.00,CLR,,0.00,WeatherDisplay:10.37,2013-09-10 05:47:00,
2013-09-10 00:48:00,76.8,63.7,29.81,WSW,246,4.2,4.6,64,0.00,CLR,,0.00,WeatherDisplay:10.37,2013-09-10 05:48:00,
2013-09-10 00:49:00,76.7,63.6,29.81,SW,234,2.3,6.9,64,0.00,CLR,,0.00,WeatherDisplay:10.37,2013-09-10 05:49:00,
2013-09-10 00:51:00,76.7,63.6,29.81,WSW,244,2.7,3.5,64,0.00,CLR,,0.00,WeatherDisplay:10.37,2013-09-10 05:51:00,
2013-09-10 00:52:00,76.7,63.6,29.81,WSW,244,1.8,4.6,64,0.00,CLR,,0.00,WeatherDisplay:10.37,2013-09-10 05:52:00,
2013-09-10 00:54:00,76.7,63.6,29.81,NNW,340,2.5,3.5,64,0.00,CLR,,0.00,WeatherDisplay:10.37,2013-09-10 05:54:00,
2013-09-10 00:57:00,76.6,63.5,29.81,West,260,2.7,3.5,64,0.00,CLR,,0.00,WeatherDisplay:10.37,2013-09-10 05:57:00,
2013-09-10 00:58:00,76.6,63.5,29.81,WSW,247,2.5,3.5,64,0.00,CLR,,0.00,WeatherDisplay:10.37,2013-09-10 05:58:00,
2013-09-10 00:59:00,76.5,63.4,29.81,West,260,1.7,2.3,64,0.00,CLR,,0.00,WeatherDisplay:10.37,2013-09-10 05:59:00,
2013-09-10 01:00:00,76.4,63.3,29.81,SW,216,2.0,3.5,64,0.00,CLR,,0.00,WeatherDisplay:10.37,2013-09-10 06:00:00,
2013-09-10 01:03:00,76.3,63.2,29.81,SW,222,1.9,3.5,64,0.00,CLR,,0.00,WeatherDisplay:10.37,2013-09-10 06:03:00,
2013-09-10 01:04:00,76.2,63.1,29.81,SW,226,2.5,3.5,64,0.00,CLR,,0.00,WeatherDisplay:10.37,2013-09-10 06:04:00,
2013-09-10 01:05:00,76.2,63.1,29.81,SW,230,2.8,3.5,64,0.00,CLR,,0.00,WeatherDisplay:10.37,2013-09-10 06:05:00,
2013-09-10 01:08:00,76.0,63.4,29.81,West,260,1.7,3.5,65,0.00,CLR,,0.00,WeatherDisplay:10.37,2013-09-10 06:08:00,
2013-09-10 01:10:00,76.0,63.4,29.81,SW,230,2.7,4.6,65,0.00,CLR,,0.00,WeatherDisplay:10.37,2013-09-10 06:10:00,
2013-09-10 01:13:00,75.7,63.1,29.81,SW,215,0.0,1.2,65,0.00,CLR,,0.00,WeatherDisplay:10.37,2013-09-10 06:13:00,
2013-09-10 01:15:00,75.6,63.0,29.81,SW,215,0.0,0.0,65,0.00,CLR,,0.00,WeatherDisplay:10.37,2013-09-10 06:15:00,
2013-09-10 01:16:00,75.4,62.8,29.81,SW,215,0.0,0.0,65,0.00,CLR,,0.00,WeatherDisplay:10.37,2013-09-10 06:16:00,
2013-09-10 01:18:00,75.4,62.8,29.81,WSW,247,2.0,2.8,65,0.00,CLR,,0.00,WeatherDisplay:10.37,2013-09-10 06:18:00,
2013-09-10 01:20:00,75.2,63.1,29.81,SSW,213,1.6,2.3,66,0.00,CLR,,0.00,WeatherDisplay:10.37,2013-09-10 06:20:00,
2013-09-10 01:21:00,75.1,63.0,29.81,WSW,258,1.4,2.3,66,0.00,CLR,,0.00,WeatherDisplay:10.37,2013-09-10 06:21:00,
2013-09-10 01:22:00,75.1,63.0,29.81,West,272,1.2,2.3,66,0.00,CLR,,0.00,WeatherDisplay:10.37,2013-09-10 06:22:00,
2013-09-10 01:23:00,74.9,62.8,29.81,WSW,246,1.2,3.5,66,0.00,CLR,,0.00,WeatherDisplay:10.37,2013-09-10 06:23:00,
2013-09-10 01:24:00,75.1,63.0,29.81,SW,233,1.1,1.7,66,0.00,CLR,,0.00,WeatherDisplay:10.37,2013-09-10 06:24:00,
2013-09-10 01:25:00,74.9,62.8,29.82,WSW,243,1.2,2.7,66,0.00,CLR,,0.00,WeatherDisplay:10.37,2013-09-10 06:25:00,
2013-09-10 01:26:00,74.9,62.8,29.82,SW,227,1.6,2.3,66,0.00,CLR,,0.00,WeatherDisplay:10.37,2013-09-10 06:26:00,
2013-09-10 01:27:00,74.8,62.7,29.81,SW,236,1.5,2.3,66,0.00,CLR,,0.00,WeatherDisplay:10.37,2013-09-10 06:27:00,
2013-09-10 01:28:00,74.7,62.6,29.82,WSW,237,1.9,2.3,66,0.00,CLR,,0.00,WeatherDisplay:10.37,2013-09-10 06:28:00,
2013-09-10 01:30:00,74.6,62.5,29.82,SW,217,1.1,1.2,66,0.00,CLR,,0.00,WeatherDisplay:10.37,2013-09-10 06:30:00,
2013-09-10 01:31:00,74.6,62.5,29.82,SW,232,1.2,1.7,66,0.00,CLR,,0.00,WeatherDisplay:10.37,2013-09-10 06:31:00,
2013-09-10 01:32:00,74.5,62.4,29.82,WSW,239,0.9,1.7,66,0.00,CLR,,0.00,WeatherDisplay:10.37,2013-09-10 06:32:00,
2013-09-10 01:34:00,74.3,62.6,29.82,SSW,212,2.0,2.0,67,0.00,CLR,,0.00,WeatherDisplay:10.37,2013-09-10 06:34:00,
2013-09-10 01:35:00,74.2,62.5,29.82,WSW,250,0.3,1.2,67,0.00,CLR,,0.00,WeatherDisplay:10.37,2013-09-10 06:35:00,
2013-09-10 01:36:00,74.2,62.5,29.82,WSW,237,0.8,2.3,67,0.00,CLR,,0.00,WeatherDisplay:10.37,2013-09-10 06:36:00,
2013-09-10 01:37:00,74.1,62.4,29.82,SSW,200,2.6,3.5,67,0.00,CLR,,0.00,WeatherDisplay:10.37,2013-09-10 06:37:00,
2013-09-10 01:39:00,74.2,62.5,29.82,WSW,250,1.0,4.4,67,0.00,CLR,,0.00,WeatherDisplay:10.37,2013-09-10 06:39:00,
2013-09-10 01:41:00,74.0,62.8,29.82,WSW,243,2.0,3.5,68,0.00,CLR,,0.00,WeatherDisplay:10.37,2013-09-10 06:41:00,
2013-09-10 01:42:00,74.0,62.8,29.82,South,184,1.3,2.7,68,0.00,CLR,,0.00,WeatherDisplay:10.37,2013-09-10 06:42:00,
2013-09-10 01:44:00,74.0,62.8,29.82,South,182,0.7,1.2,68,0.00,CLR,,0.00,WeatherDisplay:10.37,2013-09-10 06:44:00,
2013-09-10 01:46:00,73.6,62.4,29.82,South,172,1.6,2.3,68,0.00,CLR,,0.00,WeatherDisplay:10.37,2013-09-10 06:46:00,
2013-09-10 01:47:00,73.7,62.5,29.82,SSE,165,1.2,2.3,68,0.00,CLR,,0.00,WeatherDisplay:10.37,2013-09-10 06:47:00,
2013-09-10 01:49:00,73.7,62.5,29.82,SW,222,2.2,3.5,68,0.00,CLR,,0.00,WeatherDisplay:10.37,2013-09-10 06:49:00,
2013-09-10 01:51:00,73.7,62.5,29.82,WSW,241,1.3,2.3,68,0.00,CLR,,0.00,WeatherDisplay:10.37,2013-09-10 06:51:00,
2013-09-10 01:52:00,73.6,62.8,29.82,WSW,258,1.7,2.4,69,0.00,CLR,,0.00,WeatherDisplay:10.37,2013-09-10 06:52:00,
2013-09-10 01:53:00,73.6,62.8,29.82,SSW,209,1.9,2.8,69,0.00,CLR,,0.00,WeatherDisplay:10.37,2013-09-10 06:53:00,
2013-09-10 01:54:00,73.5,62.7,29.82,SSW,209,0.8,2.3,69,0.00,CLR,,0.00,WeatherDisplay:10.37,2013-09-10 06:54:00,
2013-09-10 01:56:00,73.4,62.6,29.82,WSW,246,2.1,3.5,69,0.00,CLR,,0.00,WeatherDisplay:10.37,2013-09-10 06:56:00,
2013-09-10 01:57:00,73.3,62.5,29.82,WSW,256,2.2,3.6,69,0.00,CLR,,0.00,WeatherDisplay:10.37,2013-09-10 06:57:00,
2013-09-10 01:58:00,73.4,62.6,29.82,WSW,240,2.8,3.5,69,0.00,CLR,,0.00,WeatherDisplay:10.37,2013-09-10 06:58:00,
2013-09-10 01:59:00,73.3,62.5,29.82,WSW,239,1.9,3.5,69,0.00,CLR,,0.00,WeatherDisplay:10.37,2013-09-10 06:59:00,
2013-09-10 02:01:00,73.3,62.5,29.82,SSW,206,2.3,3.5,69,0.00,CLR,,0.00,WeatherDisplay:10.37,2013-09-10 07:01:00,
2013-09-10 02:02:00,73.2,62.4,29.82,West,260,2.4,2.5,69,0.00,CLR,,0.00,WeatherDisplay:10.37,2013-09-10 07:02:00,
2013-09-10 02:03:00,73.3,62.9,29.82,WSW,258,2.6,4.6,70,0.00,CLR,,0.00,WeatherDisplay:10.37,2013-09-10 07:03:00,
2013-09-10 02:04:00,73.2,62.8,29.82,WSW,253,2.3,3.5,70,0.00,CLR,,0.00,WeatherDisplay:10.37,2013-09-10 07:04:00,
2013-09-10 02:05:00,73.2,62.8,29.82,SW,234,1.7,3.5,70,0.00,CLR,,0.00,WeatherDisplay:10.37,2013-09-10 07:05:00,
2013-09-10 02:06:00,73.2,62.8,29.82,South,175,1.7,3.5,70,0.00,CLR,,0.00,WeatherDisplay:10.37,2013-09-10 07:06:00,
2013-09-10 02:08:00,73.2,62.8,29.82,WSW,239,1.7,4.6,70,0.00,CLR,,0.00,WeatherDisplay:10.37,2013-09-10 07:08:00,
2013-09-10 02:09:00,73.2,62.8,29.83,South,191,1.5,2.3,70,0.00,CLR,,0.00,WeatherDisplay:10.37,2013-09-10 07:09:00,
2013-09-10 02:10:00,72.9,62.5,29.82,SW,215,1.2,2.3,70,0.00,CLR,,0.00,WeatherDisplay:10.37,2013-09-10 07:10:00,
2013-09-10 02:12:00,73.1,62.7,29.83,SW,233,0.3,1.9,70,0.00,CLR,,0.00,WeatherDisplay:10.37,2013-09-10 07:12:00,
2013-09-10 02:13:00,73.0,62.6,29.82,South,186,1.5,2.3,70,0.00,CLR,,0.00,WeatherDisplay:10.37,2013-09-10 07:13:00,
2013-09-10 02:14:00,73.0,62.6,29.83,WSW,244,1.9,2.3,70,0.00,CLR,,0.00,WeatherDisplay:10.37,2013-09-10 07:14:00,
2013-09-10 02:15:00,73.1,62.7,29.83,West,265,1.4,3.5,70,0.00,CLR,,0.00,WeatherDisplay:10.37,2013-09-10 07:15:00,
2013-09-10 02:16:00,73.0,62.6,29.83,WSW,244,0.7,2.3,70,0.00,CLR,,0.00,WeatherDisplay:10.37,2013-09-10 07:16:00,
2013-09-10 02:17:00,73.0,62.6,29.83,SSW,208,1.5,2.3,70,0.00,CLR,,0.00,WeatherDisplay:10.37,2013-09-10 07:17:00,
2013-09-10 02:18:00,72.8,62.4,29.83,WSW,239,2.4,3.8,70,0.00,CLR,,0.00,WeatherDisplay:10.37,2013-09-10 07:18:00,
2013-09-10 02:19:00,73.0,62.6,29.83,SSW,213,2.7,4.6,70,0.00,CLR,,0.00,WeatherDisplay:10.37,2013-09-10 07:19:00,
2013-09-10 02:21:00,72.9,62.5,29.83,SW,216,1.4,3.5,70,0.00,CLR,,0.00,WeatherDisplay:10.37,2013-09-10 07:21:00,
2013-09-10 02:22:00,72.9,62.5,29.83,SW,224,1.4,2.3,70,0.00,CLR,,0.00,WeatherDisplay:10.37,2013-09-10 07:22:00,
2013-09-10 02:23:00,72.9,62.5,29.83,SW,233,1.7,2.3,70,0.00,CLR,,0.00,WeatherDisplay:10.37,2013-09-10 07:23:00,
2013-09-10 02:24:00,72.8,62.4,29.83,WSW,237,1.9,2.9,70,0.00,CLR,,0.00,WeatherDisplay:10.37,2013-09-10 07:24:00,
2013-09-10 02:26:00,72.7,62.3,29.83,WSW,247,2.9,4.6,70,0.00,CLR,,0.00,WeatherDisplay:10.37,2013-09-10 07:26:00,
2013-09-10 02:27:00,72.8,62.4,29.83,SSW,203,2.2,3.5,70,0.00,CLR,,0.00,WeatherDisplay:10.37,2013-09-10 07:27:00,
2013-09-10 02:28:00,72.8,62.4,29.83,SW,224,1.9,3.5,70,0.00,CLR,,0.00,WeatherDisplay:10.37,2013-09-10 07:28:00,
2013-09-10 02:30:00,72.8,62.4,29.83,WSW,251,1.5,2.3,70,0.00,CLR,,0.00,WeatherDisplay:10.37,2013-09-10 07:30:00,
2013-09-10 02:32:00,72.7,62.3,29.83,SSW,200,1.8,3.2,70,0.00,CLR,,0.00,WeatherDisplay:10.37,2013-09-10 07:32:00,
2013-09-10 02:33:00,72.6,62.3,29.83,SW,219,1.9,2.3,70,0.00,CLR,,0.00,WeatherDisplay:10.37,2013-09-10 07:33:00,
2013-09-10 02:34:00,72.7,62.3,29.83,SW,223,1.2,3.5,70,0.00,CLR,,0.00,WeatherDisplay:10.37,2013-09-10 07:34:00,
2013-09-10 02:35:00,72.7,62.3,29.83,West,265,1.3,2.3,70,0.00,CLR,,0.00,WeatherDisplay:10.37,2013-09-10 07:35:00,
2013-09-10 02:38:00,72.6,62.3,29.83,SSW,198,3.0,4.6,70,0.00,CLR,,0.00,WeatherDisplay:10.37,2013-09-10 07:38:00,
2013-09-10 02:39:00,72.5,62.2,29.83,South,185,1.9,3.5,70,0.00,CLR,,0.00,WeatherDisplay:10.37,2013-09-10 07:39:00,
2013-09-10 02:40:00,72.5,62.6,29.83,WSW,237,1.1,2.3,71,0.00,CLR,,0.00,WeatherDisplay:10.37,2013-09-10 07:40:00,
2013-09-10 02:43:00,72.3,62.4,29.83,SW,224,1.7,3.5,71,0.00,CLR,,0.00,WeatherDisplay:10.37,2013-09-10 07:43:00,
2013-09-10 02:44:00,72.4,62.5,29.83,SW,224,2.0,3.5,71,0.00,CLR,,0.00,WeatherDisplay:10.37,2013-09-10 07:44:00,
2013-09-10 02:45:00,72.5,62.6,29.83,NW,305,1.7,2.3,71,0.00,CLR,,0.00,WeatherDisplay:10.37,2013-09-10 07:45:00,
2013-09-10 02:48:00,72.4,62.5,29.83,SW,217,1.7,3.5,71,0.00,CLR,,0.00,WeatherDisplay:10.37,2013-09-10 07:48:00,
2013-09-10 02:49:00,72.4,62.5,29.83,SW,229,1.8,2.3,71,0.00,CLR,,0.00,WeatherDisplay:10.37,2013-09-10 07:49:00,
2013-09-10 02:50:00,72.1,62.2,29.83,WSW,251,1.6,2.3,71,0.00,CLR,,0.00,WeatherDisplay:10.37,2013-09-10 07:50:00,
2013-09-10 02:53:00,72.3,62.4,29.83,WSW,239,1.2,4.6,71,0.00,CLR,,0.00,WeatherDisplay:10.37,2013-09-10 07:53:00,
2013-09-10 02:54:00,72.2,62.3,29.83,South,191,0.9,2.3,71,0.00,CLR,,0.00,WeatherDisplay:10.37,2013-09-10 07:54:00,
2013-09-10 02:55:00,72.2,62.3,29.83,WSW,237,1.2,2.2,71,0.00,CLR,,0.00,WeatherDisplay:10.37,2013-09-10 07:55:00,
2013-09-10 02:56:00,72.2,62.3,29.83,SSW,210,1.5,1.5,71,0.00,CLR,,0.00,WeatherDisplay:10.37,2013-09-10 07:56:00,
2013-09-10 02:59:00,72.1,62.2,29.83,SW,229,1.3,2.3,71,0.00,CLR,,0.00,WeatherDisplay:10.37,2013-09-10 07:59:00,
2013-09-10 03:00:00,72.1,62.2,29.83,SW,223,2.5,3.9,71,0.00,CLR,,0.00,WeatherDisplay:10.37,2013-09-10 08:00:00,
2013-09-10 03:01:00,72.1,62.2,29.83,SSW,209,2.9,4.6,71,0.00,CLR,,0.00,WeatherDisplay:10.37,2013-09-10 08:01:00,
2013-09-10 03:02:00,71.9,62.0,29.83,SW,217,1.8,4.6,71,0.00,CLR,,0.00,WeatherDisplay:10.37,2013-09-10 08:02:00,
2013-09-10 03:04:00,72.1,62.2,29.83,WSW,237,2.5,3.7,71,0.00,CLR,,0.00,WeatherDisplay:10.37,2013-09-10 08:04:00,
2013-09-10 03:05:00,71.9,62.0,29.83,SSW,210,2.8,3.7,71,0.00,CLR,,0.00,WeatherDisplay:10.37,2013-09-10 08:05:00,
2013-09-10 03:06:00,71.9,62.0,29.83,WSW,257,2.9,4.6,71,0.00,CLR,,0.00,WeatherDisplay:10.37,2013-09-10 08:06:00,
2013-09-10 03:07:00,71.8,61.9,29.83,WSW,240,1.7,3.5,71,0.00,CLR,,0.00,WeatherDisplay:10.37,2013-09-10 08:07:00,
2013-09-10 03:09:00,71.9,62.0,29.83,SW,216,1.8,3.5,71,0.00,CLR,,0.00,WeatherDisplay:10.37,2013-09-10 08:09:00,
2013-09-10 03:10:00,71.8,61.9,29.83,SSW,206,2.2,3.5,71,0.00,CLR,,0.00,WeatherDisplay:10.37,2013-09-10 08:10:00,
2013-09-10 03:11:00,71.8,61.9,29.83,SW,229,2.5,3.5,71,0.00,CLR,,0.00,WeatherDisplay:10.37,2013-09-10 08:11:00,
2013-09-10 03:12:00,71.6,61.7,29.83,SSW,202,2.4,4.0,71,0.00,CLR,,0.00,WeatherDisplay:10.37,2013-09-10 08:12:00,
2013-09-10 03:14:00,71.8,61.9,29.83,WSW,241,1.4,4.6,71,0.00,CLR,,0.00,WeatherDisplay:10.37,2013-09-10 08:14:00,
2013-09-10 03:15:00,71.6,61.7,29.83,SW,215,2.2,3.3,71,0.00,CLR,,0.00,WeatherDisplay:10.37,2013-09-10 08:15:00,
2013-09-10 03:16:00,71.8,61.9,29.83,WSW,239,2.7,3.5,71,0.00,CLR,,0.00,WeatherDisplay:10.37,2013-09-10 08:16:00,
2013-09-10 03:17:00,71.8,61.9,29.83,SW,220,2.3,3.5,71,0.00,CLR,,0.00,WeatherDisplay:10.37,2013-09-10 08:17:00,
2013-09-10 03:19:00,71.8,61.9,29.83,West,264,1.5,2.3,71,0.00,CLR,,0.00,WeatherDisplay:10.37,2013-09-10 08:19:00,
2013-09-10 03:20:00,71.6,61.7,29.83,SW,223,1.2,2.3,71,0.00,CLR,,0.00,WeatherDisplay:10.37,2013-09-10 08:20:00,
2013-09-10 03:21:00,71.7,61.8,29.83,SW,233,1.7,2.8,71,0.00,CLR,,0.00,WeatherDisplay:10.37,2013-09-10 08:21:00,
2013-09-10 03:22:00,71.7,61.8,29.83,SW,236,0.8,3.2,71,0.00,CLR,,0.00,WeatherDisplay:10.37,2013-09-10 08:22:00,
2013-09-10 03:25:00,71.7,61.8,29.83,SW,232,3.4,5.8,71,0.00,CLR,,0.00,WeatherDisplay:10.37,2013-09-10 08:25:00,
2013-09-10 03:26:00,71.7,61.8,29.83,SW,222,2.8,5.8,71,0.00,CLR,,0.00,WeatherDisplay:10.37,2013-09-10 08:26:00,
2013-09-10 03:28:00,71.6,61.7,29.83,WSW,244,2.5,4.6,71,0.00,CLR,,0.00,WeatherDisplay:10.37,2013-09-10 08:28:00,
2013-09-10 03:30:00,71.5,61.6,29.83,SSW,193,1.5,2.3,71,0.00,CLR,,0.00,WeatherDisplay:10.37,2013-09-10 08:30:00,
2013-09-10 03:31:00,71.6,61.7,29.83,WSW,250,1.9,4.6,71,0.00,CLR,,0.00,WeatherDisplay:10.37,2013-09-10 08:31:00,
2013-09-10 03:34:00,71.6,61.7,29.83,WSW,239,1.8,2.8,71,0.00,CLR,,0.00,WeatherDisplay:10.37,2013-09-10 08:34:00,
2013-09-10 03:35:00,71.4,61.5,29.83,SW,236,1.3,3.2,71,0.00,CLR,,0.00,WeatherDisplay:10.37,2013-09-10 08:35:00,
2013-09-10 03:36:00,71.6,61.7,29.83,WSW,244,1.6,2.3,71,0.00,CLR,,0.00,WeatherDisplay:10.37,2013-09-10 08:36:00,
2013-09-10 03:39:00,71.5,61.6,29.83,West,265,2.5,3.5,71,0.00,CLR,,0.00,WeatherDisplay:10.37,2013-09-10 08:39:00,
2013-09-10 03:40:00,71.4,61.5,29.83,SW,229,2.2,3.5,71,0.00,CLR,,0.00,WeatherDisplay:10.37,2013-09-10 08:40:00,
2013-09-10 03:41:00,71.5,61.6,29.83,WSW,243,2.5,3.5,71,0.00,CLR,,0.00,WeatherDisplay:10.37,2013-09-10 08:41:00,
2013-09-10 03:44:00,71.4,61.5,29.83,SW,215,2.7,3.9,71,0.00,CLR,,0.00,WeatherDisplay:10.37,2013-09-10 08:44:00,
2013-09-10 03:45:00,71.5,61.6,29.84,SW,227,2.6,4.6,71,0.00,CLR,,0.00,WeatherDisplay:10.37,2013-09-10 08:45:00,
2013-09-10 03:46:00,71.5,61.6,29.84,South,185,2.0,4.6,71,0.00,CLR,,0.00,WeatherDisplay:10.37,2013-09-10 08:46:00,
2013-09-10 03:49:00,71.5,62.0,29.84,SW,232,2.5,3.5,72,0.00,CLR,,0.00,WeatherDisplay:10.37,2013-09-10 08:49:00,
2013-09-10 03:50:00,71.3,61.8,29.84,South,171,2.4,3.5,72,0.00,CLR,,0.00,WeatherDisplay:10.37,2013-09-10 08:50:00,
2013-09-10 03:51:00,71.2,61.7,29.84,WSW,239,2.7,3.5,72,0.00,CLR,,0.00,WeatherDisplay:10.37,2013-09-10 08:51:00,
2013-09-10 03:55:00,71.4,61.9,29.84,SW,229,3.6,6.3,72,0.00,CLR,,0.00,WeatherDisplay:10.37,2013-09-10 08:55:00,
2013-09-10 03:56:00,71.4,61.9,29.84,SW,232,3.5,6.9,72,0.00,CLR,,0.00,WeatherDisplay:10.37,2013-09-10 08:56:00,
2013-09-10 03:57:00,71.4,61.9,29.84,SW,222,2.9,4.6,72,0.00,CLR,,0.00,WeatherDisplay:10.37,2013-09-10 08:57:00,
2013-09-10 04:00:00,71.3,61.8,29.84,WSW,239,2.1,6.9,72,0.00,CLR,,0.00,WeatherDisplay:10.37,2013-09-10 09:00:00,
2013-09-10 04:01:00,71.4,61.5,29.84,SW,219,1.8,6.9,71,0.00,CLR,,0.00,WeatherDisplay:10.37,2013-09-10 09:01:00,
2013-09-10 04:02:00,71.4,61.5,29.84,SSW,198,2.4,2.8,71,0.00,CLR,,0.00,WeatherDisplay:10.37,2013-09-10 09:02:00,
2013-09-10 04:04:00,71.4,61.5,29.84,SW,220,3.3,4.6,71,0.00,CLR,,0.00,WeatherDisplay:10.37,2013-09-10 09:04:00,
2013-09-10 04:06:00,71.3,61.4,29.84,South,175,3.2,5.8,71,0.00,CLR,,0.00,WeatherDisplay:10.37,2013-09-10 09:06:00,
2013-09-10 04:07:00,71.4,61.5,29.84,WSW,244,2.3,3.5,71,0.00,CLR,,0.00,WeatherDisplay:10.37,2013-09-10 09:07:00,
2013-09-10 04:09:00,71.3,61.4,29.84,SW,224,3.6,4.6,71,0.00,CLR,,0.00,WeatherDisplay:10.37,2013-09-10 09:09:00,
2013-09-10 04:11:00,71.4,61.5,29.84,SW,232,2.8,5.8,71,0.00,CLR,,0.00,WeatherDisplay:10.37,2013-09-10 09:11:00,
2013-09-10 04:12:00,71.4,61.5,29.84,SSW,203,2.7,4.5,71,0.00,CLR,,0.00,WeatherDisplay:10.37,2013-09-10 09:12:00,
2013-09-10 04:13:00,71.4,61.5,29.84,SW,216,3.6,5.3,71,0.00,CLR,,0.00,WeatherDisplay:10.37,2013-09-10 09:13:00,
2013-09-10 04:14:00,71.4,61.5,29.84,SW,229,3.2,5.8,71,0.00,CLR,,0.00,WeatherDisplay:10.37,2013-09-10 09:14:00,
2013-09-10 04:16:00,71.5,61.6,29.84,WSW,246,3.7,3.7,71,0.00,CLR,,0.00,WeatherDisplay:10.37,2013-09-10 09:16:00,
2013-09-10 04:17:00,71.5,61.6,29.84,SW,232,3.7,5.8,71,0.00,CLR,,0.00,WeatherDisplay:10.37,2013-09-10 09:17:00,
2013-09-10 04:18:00,71.4,61.5,29.84,SW,226,3.8,5.8,71,0.00,CLR,,0.00,WeatherDisplay:10.37,2013-09-10 09:18:00,
2013-09-10 04:19:00,71.4,61.5,29.84,West,268,3.2,4.6,71,0.00,CLR,,0.00,WeatherDisplay:10.37,2013-09-10 09:19:00,
2013-09-10 04:20:00,71.3,61.4,29.84,WSW,248,3.0,5.8,71,0.00,CLR,,0.00,WeatherDisplay:10.37,2013-09-10 09:20:00,
2013-09-10 04:21:00,71.3,61.4,29.84,SW,215,3.0,4.6,71,0.00,CLR,,0.00,WeatherDisplay:10.37,2013-09-10 09:21:00,
2013-09-10 04:22:00,71.3,61.4,29.84,SW,232,3.2,3.5,71,0.00,CLR,,0.00,WeatherDisplay:10.37,2013-09-10 09:22:00,
2013-09-10 04:23:00,71.4,61.5,29.84,SW,229,2.9,4.6,71,0.00,CLR,,0.00,WeatherDisplay:10.37,2013-09-10 09:23:00,
2013-09-10 04:24:00,71.5,61.6,29.84,SW,217,3.3,4.6,71,0.00,CLR,,0.00,WeatherDisplay:10.37,2013-09-10 09:24:00,
2013-09-10 04:25:00,71.5,61.6,29.84,SW,227,3.7,4.9,71,0.00,CLR,,0.00,WeatherDisplay:10.37,2013-09-10 09:25:00,
2013-09-10 04:27:00,71.5,61.6,29.85,SW,229,2.7,3.5,71,0.00,CLR,,0.00,WeatherDisplay:10.37,2013-09-10 09:27:00,
2013-09-10 04:28:00,71.5,61.2,29.85,SW,233,1.9,4.4,70,0.00,CLR,,0.00,WeatherDisplay:10.37,2013-09-10 09:28:00,
2013-09-10 04:31:00,71.4,61.1,29.84,SW,227,2.9,3.5,70,0.00,CLR,,0.00,WeatherDisplay:10.37,2013-09-10 09:31:00,
2013-09-10 04:32:00,71.5,61.2,29.84,SW,219,3.0,4.6,70,0.00,CLR,,0.00,WeatherDisplay:10.37,2013-09-10 09:32:00,
2013-09-10 04:33:00,71.5,61.2,29.85,NW,312,3.0,4.6,70,0.00,CLR,,0.00,WeatherDisplay:10.37,2013-09-10 09:33:00,
2013-09-10 04:36:00,71.4,61.5,29.85,WSW,258,3.8,5.8,71,0.00,CLR,,0.00,WeatherDisplay:10.37,2013-09-10 09:36:00,
2013-09-10 04:37:00,71.4,61.1,29.85,SW,232,2.7,4.6,70,0.00,CLR,,0.00,WeatherDisplay:10.37,2013-09-10 09:37:00,
2013-09-10 04:38:00,71.4,61.1,29.85,WSW,256,3.2,5.8,70,0.00,CLR,,0.00,WeatherDisplay:10.37,2013-09-10 09:38:00,
2013-09-10 04:39:00,71.4,61.5,29.85,SW,217,2.0,4.6,71,0.00,CLR,,0.00,WeatherDisplay:10.37,2013-09-10 09:39:00,
2013-09-10 04:42:00,71.4,61.5,29.85,SSW,210,3.6,5.8,71,0.00,CLR,,0.00,WeatherDisplay:10.37,2013-09-10 09:42:00,
2013-09-10 04:43:00,71.3,61.4,29.85,SW,233,2.4,4.6,71,0.00,CLR,,0.00,WeatherDisplay:10.37,2013-09-10 09:43:00,
2013-09-10 04:44:00,71.1,61.2,29.85,SSW,202,3.2,3.5,71,0.00,CLR,,0.00,WeatherDisplay:10.37,2013-09-10 09:44:00,
2013-09-10 04:47:00,71.3,61.4,29.85,West,261,1.5,2.3,71,0.00,CLR,,0.00,WeatherDisplay:10.37,2013-09-10 09:47:00,
2013-09-10 04:48:00,71.3,61.4,29.85,SSW,203,2.1,4.6,71,0.00,CLR,,0.00,WeatherDisplay:10.37,2013-09-10 09:48:00,
2013-09-10 04:50:00,71.2,60.9,29.85,SSW,205,2.4,3.5,70,0.00,CLR,,0.00,WeatherDisplay:10.37,2013-09-10 09:50:00,
2013-09-10 04:52:00,71.3,61.0,29.85,SW,226,1.8,3.5,70,0.00,CLR,,0.00,WeatherDisplay:10.37,2013-09-10 09:52:00,
2013-09-10 04:53:00,71.3,61.0,29.85,WSW,250,1.6,3.5,70,0.00,CLR,,0.00,WeatherDisplay:10.37,2013-09-10 09:53:00,
2013-09-10 04:55:00,71.1,60.8,29.85,SSW,202,0.0,2.3,70,0.00,CLR,,0.00,WeatherDisplay:10.37,2013-09-10 09:55:00,
2013-09-10 04:57:00,71.0,60.7,29.85,SW,215,0.2,2.3,70,0.00,CLR,,0.00,WeatherDisplay:10.37,2013-09-10 09:57:00,
2013-09-10 04:58:00,71.1,60.8,29.85,SW,215,0.0,0.0,70,0.00,CLR,,0.00,WeatherDisplay:10.37,2013-09-10 09:58:00,
2013-09-10 04:59:00,71.1,60.8,29.85,SW,215,0.0,0.0,70,0.00,CLR,,0.00,WeatherDisplay:10.37,2013-09-10 09:59:00,
2013-09-10 05:00:00,70.9,60.6,29.85,SW,215,0.0,0.0,70,0.00,CLR,,0.00,WeatherDisplay:10.37,2013-09-10 10:00:00,
2013-09-10 05:02:00,71.0,61.1,29.85,SW,215,0.0,0.0,71,0.00,CLR,,0.00,WeatherDisplay:10.37,2013-09-10 10:02:00,
2013-09-10 05:03:00,70.8,60.9,29.85,SW,215,0.0,0.0,71,0.00,CLR,,0.00,WeatherDisplay:10.37,2013-09-10 10:03:00,
2013-09-10 05:04:00,70.8,60.5,29.85,SW,215,0.0,0.0,70,0.00,CLR,,0.00,WeatherDisplay:10.37,2013-09-10 10:04:00,
2013-09-10 05:06:00,70.7,60.4,29.85,SW,215,0.0,0.0,70,0.00,CLR,,0.00,WeatherDisplay:10.37,2013-09-10 10:06:00,
2013-09-10 05:08:00,70.6,60.7,29.85,SW,215,0.0,0.0,71,0.00,CLR,,0.00,WeatherDisplay:10.37,2013-09-10 10:08:00,
2013-09-10 05:09:00,70.5,60.6,29.85,SW,215,0.0,0.0,71,0.00,CLR,,0.00,WeatherDisplay:10.37,2013-09-10 10:09:00,
2013-09-10 05:10:00,70.5,60.6,29.85,SW,215,0.0,0.0,71,0.00,CLR,,0.00,WeatherDisplay:10.37,2013-09-10 10:10:00,
2013-09-10 05:11:00,70.4,60.5,29.85,SW,215,0.0,0.0,71,0.00,CLR,,0.00,WeatherDisplay:10.37,2013-09-10 10:11:00,
2013-09-10 05:13:00,70.3,60.4,29.85,SW,215,0.0,0.0,71,0.00,CLR,,0.00,WeatherDisplay:10.37,2013-09-10 10:13:00,
2013-09-10 05:14:00,70.2,60.4,29.85,SW,215,0.0,0.0,71,0.00,CLR,,0.00,WeatherDisplay:10.37,2013-09-10 10:14:00,
2013-09-10 05:15:00,70.1,60.3,29.85,SW,215,0.0,0.0,71,0.00,CLR,,0.00,WeatherDisplay:10.37,2013-09-10 10:15:00,
2013-09-10 05:17:00,70.0,60.6,29.85,SW,215,0.0,0.0,72,0.00,CLR,,0.00,WeatherDisplay:10.37,2013-09-10 10:17:00,
2013-09-10 05:18:00,69.8,60.4,29.85,SW,215,0.0,0.0,72,0.00,CLR,,0.00,WeatherDisplay:10.37,2013-09-10 10:18:00,
2013-09-10 05:19:00,69.7,60.3,29.85,SW,215,0.0,0.0,72,0.00,CLR,,0.00,WeatherDisplay:10.37,2013-09-10 10:19:00,
2013-09-10 05:20:00,69.9,60.5,29.85,SW,215,0.0,0.0,72,0.00,CLR,,0.00,WeatherDisplay:10.37,2013-09-10 10:20:00,
2013-09-10 05:22:00,69.6,60.2,29.85,SW,215,0.0,0.0,72,0.00,CLR,,0.00,WeatherDisplay:10.37,2013-09-10 10:22:00,
2013-09-10 05:23:00,69.5,60.1,29.85,SW,215,0.0,0.0,72,0.00,CLR,,0.00,WeatherDisplay:10.37,2013-09-10 10:23:00,
2013-09-10 05:24:00,69.5,60.1,29.86,SW,215,0.0,0.0,72,0.00,CLR,,0.00,WeatherDisplay:10.37,2013-09-10 10:24:00,
2013-09-10 05:26:00,69.3,60.3,29.86,SW,215,0.0,0.0,73,0.00,CLR,,0.00,WeatherDisplay:10.37,2013-09-10 10:26:00,
2013-09-10 05:28:00,69.3,60.3,29.86,SW,215,0.0,0.0,73,0.00,CLR,,0.00,WeatherDisplay:10.37,2013-09-10 10:28:00,
2013-09-10 05:29:00,69.2,60.2,29.86,SW,215,0.0,0.0,73,0.00,CLR,,0.00,WeatherDisplay:10.37,2013-09-10 10:29:00,
2013-09-10 05:31:00,69.2,60.2,29.86,SW,215,0.0,0.0,73,0.00,CLR,,0.00,WeatherDisplay:10.37,2013-09-10 10:31:00,
2013-09-10 05:32:00,69.0,60.0,29.86,SW,215,0.0,0.0,73,0.00,CLR,,0.00,WeatherDisplay:10.37,2013-09-10 10:32:00,
2013-09-10 05:33:00,69.0,60.0,29.85,SW,215,0.0,0.0,73,0.00,CLR,,0.00,WeatherDisplay:10.37,2013-09-10 10:33:00,
2013-09-10 05:34:00,69.0,60.0,29.85,SW,215,0.0,0.0,73,0.00,CLR,,0.00,WeatherDisplay:10.37,2013-09-10 10:34:00,
2013-09-10 05:35:00,68.8,59.8,29.85,SW,215,0.0,0.0,73,0.00,CLR,,0.00,WeatherDisplay:10.37,2013-09-10 10:35:00,
2013-09-10 05:37:00,68.8,60.2,29.85,SW,215,0.0,0.0,74,0.00,CLR,,0.00,WeatherDisplay:10.37,2013-09-10 10:37:00,
2013-09-10 05:38:00,68.6,60.0,29.86,SW,215,0.0,0.0,74,0.00,CLR,,0.00,WeatherDisplay:10.37,2013-09-10 10:38:00,
2013-09-10 05:39:00,68.7,60.1,29.86,SW,215,0.0,0.0,74,0.00,CLR,,0.00,WeatherDisplay:10.37,2013-09-10 10:39:00,
2013-09-10 05:40:00,68.6,60.0,29.86,SW,215,0.0,0.0,74,0.00,CLR,,0.00,WeatherDisplay:10.37,2013-09-10 10:40:00,
2013-09-10 05:42:00,68.5,59.9,29.86,SW,215,0.0,0.0,74,0.00,CLR,,0.00,WeatherDisplay:10.37,2013-09-10 10:42:00,
2013-09-10 05:43:00,68.5,59.9,29.86,SW,215,0.0,0.0,74,0.00,CLR,,0.00,WeatherDisplay:10.37,2013-09-10 10:43:00,
2013-09-10 05:44:00,68.5,59.9,29.86,SW,215,0.0,0.0,74,0.00,CLR,,0.00,WeatherDisplay:10.37,2013-09-10 10:44:00,
2013-09-10 05:45:00,68.4,59.8,29.86,SW,215,0.0,0.0,74,0.00,CLR,,0.00,WeatherDisplay:10.37,2013-09-10 10:45:00,
2013-09-10 05:47:00,68.5,60.3,29.86,SW,215,0.0,0.0,75,0.00,CLR,,0.00,WeatherDisplay:10.37,2013-09-10 10:47:00,
2013-09-10 05:48:00,68.5,60.3,29.86,SW,219,0.7,2.5,75,0.00,CLR,,0.00,WeatherDisplay:10.37,2013-09-10 10:48:00,
2013-09-10 05:49:00,68.5,60.3,29.86,SW,220,1.0,2.3,75,0.00,CLR,,0.00,WeatherDisplay:10.37,2013-09-10 10:49:00,
2013-09-10 05:51:00,68.5,60.3,29.86,SW,215,1.8,2.3,75,0.00,CLR,,0.00,WeatherDisplay:10.37,2013-09-10 10:51:00,
2013-09-10 05:53:00,68.4,60.2,29.86,SSW,212,2.7,3.5,75,0.00,CLR,,0.00,WeatherDisplay:10.37,2013-09-10 10:53:00,
2013-09-10 05:54:00,68.5,60.3,29.86,West,281,3.0,4.7,75,0.00,CLR,,0.00,WeatherDisplay:10.37,2013-09-10 10:54:00,
2013-09-10 05:56:00,68.5,60.3,29.86,SSW,209,2.6,5.1,75,0.00,CLR,,0.00,WeatherDisplay:10.37,2013-09-10 10:56:00,
2013-09-10 05:58:00,68.5,60.3,29.86,WSW,240,2.8,4.6,75,0.00,CLR,,0.00,WeatherDisplay:10.37,2013-09-10 10:58:00,
2013-09-10 05:59:00,68.5,59.9,29.86,WSW,241,2.9,4.6,74,0.00,CLR,,0.00,WeatherDisplay:10.37,2013-09-10 10:59:00,
2013-09-10 06:01:00,68.6,60.0,29.86,WSW,237,2.2,3.5,74,0.00,CLR,,0.00,WeatherDisplay:10.37,2013-09-10 11:01:00,
2013-09-10 06:03:00,68.8,60.2,29.86,SW,230,3.2,3.7,74,0.00,CLR,,0.00,WeatherDisplay:10.37,2013-09-10 11:03:00,
2013-09-10 06:04:00,68.9,60.3,29.86,SW,230,3.0,4.6,74,0.00,CLR,,0.00,WeatherDisplay:10.37,2013-09-10 11:04:00,
2013-09-10 06:06:00,69.0,60.4,29.86,SW,233,2.5,4.6,74,0.00,CLR,,0.00,WeatherDisplay:10.37,2013-09-10 11:06:00,
2013-09-10 06:08:00,68.9,59.9,29.86,SW,227,2.4,4.6,73,0.00,CLR,,0.00,WeatherDisplay:10.37,2013-09-10 11:08:00,
2013-09-10 06:09:00,69.1,60.1,29.86,SW,227,2.5,3.5,73,0.00,CLR,,0.00,WeatherDisplay:10.37,2013-09-10 11:09:00,
2013-09-10 06:12:00,69.1,60.1,29.86,SSW,209,3.0,4.6,73,0.00,CLR,,0.00,WeatherDisplay:10.37,2013-09-10 11:12:00,
2013-09-10 06:14:00,69.3,60.3,29.86,SSW,205,2.1,3.5,73,0.00,CLR,,0.00,WeatherDisplay:10.37,2013-09-10 11:14:00,
2013-09-10 06:15:00,69.4,60.4,29.86,SSW,199,1.7,3.5,73,0.00,CLR,,0.00,WeatherDisplay:10.37,2013-09-10 11:15:00,
2013-09-10 06:17:00,69.4,60.0,29.86,SW,222,2.0,3.5,72,0.00,CLR,,0.00,WeatherDisplay:10.37,2013-09-10 11:17:00,
2013-09-10 06:19:00,69.4,60.0,29.86,WSW,258,1.7,2.7,72,0.00,CLR,,0.00,WeatherDisplay:10.37,2013-09-10 11:19:00,
2013-09-10 06:20:00,69.5,60.1,29.86,South,188,1.7,2.3,72,0.00,CLR,,0.00,WeatherDisplay:10.37,2013-09-10 11:20:00,
2013-09-10 06:21:00,69.4,60.0,29.86,South,184,1.3,2.3,72,0.00,CLR,,0.00,WeatherDisplay:10.37,2013-09-10 11:21:00,
2013-09-10 06:22:00,69.5,60.1,29.86,WSW,237,2.3,5.8,72,0.00,CLR,,0.00,WeatherDisplay:10.37,2013-09-10 11:22:00,
2013-09-10 06:25:00,69.4,60.0,29.87,SW,219,0.6,3.8,72,0.00,CLR,,0.00,WeatherDisplay:10.37,2013-09-10 11:25:00,
2013-09-10 06:26:00,69.5,60.1,29.86,SW,223,1.4,3.5,72,0.00,CLR,,0.00,WeatherDisplay:10.37,2013-09-10 11:26:00,
2013-09-10 06:27:00,69.5,60.1,29.86,SW,219,2.1,3.5,72,0.00,CLR,,0.00,WeatherDisplay:10.37,2013-09-10 11:27:00,
2013-09-10 06:30:00,69.6,60.2,29.87,SW,216,1.1,2.3,72,0.00,CLR,,0.00,WeatherDisplay:10.37,2013-09-10 11:30:00,
2013-09-10 06:32:00,69.5,60.1,29.87,SW,224,1.8,2.9,72,0.00,CLR,,0.00,WeatherDisplay:10.37,2013-09-10 11:32:00,
2013-09-10 06:33:00,69.4,60.0,29.87,SSE,154,1.3,2.3,72,0.00,CLR,,0.00,WeatherDisplay:10.37,2013-09-10 11:33:00,
2013-09-10 06:35:00,69.4,60.0,29.87,WSW,258,0.1,1.2,72,0.00,CLR,,0.00,WeatherDisplay:10.37,2013-09-10 11:35:00,
2013-09-10 06:38:00,69.4,60.0,29.87,SSW,203,0.4,1.2,72,0.00,CLR,,0.00,WeatherDisplay:10.37,2013-09-10 11:38:00,
2013-09-10 06:39:00,69.4,60.0,29.87,WSW,247,0.5,1.2,72,0.00,CLR,,0.00,WeatherDisplay:10.37,2013-09-10 11:39:00,
2013-09-10 06:40:00,69.4,60.0,29.87,West,268,3.7,5.8,72,0.00,CLR,,0.00,WeatherDisplay:10.37,2013-09-10 11:40:00,
2013-09-10 06:43:00,69.4,60.0,29.88,SSW,203,0.0,0.0,72,0.00,CLR,,0.00,WeatherDisplay:10.37,2013-09-10 11:43:00,
2013-09-10 06:44:00,69.3,59.9,29.88,SSW,203,0.0,0.0,72,0.00,CLR,,0.00,WeatherDisplay:10.37,2013-09-10 11:44:00,
2013-09-10 06:45:00,69.3,59.9,29.88,SSW,203,0.0,0.0,72,0.00,CLR,,0.00,WeatherDisplay:10.37,2013-09-10 11:45:00,
2013-09-10 06:48:00,69.2,59.8,29.88,SW,224,1.0,3.5,72,0.00,CLR,,0.00,WeatherDisplay:10.37,2013-09-10 11:48:00,
2013-09-10 06:49:00,69.2,59.8,29.88,SW,224,0.0,2.3,72,0.00,CLR,,0.00,WeatherDisplay:10.37,2013-09-10 11:49:00,
2013-09-10 06:50:00,69.2,59.8,29.88,SW,233,0.8,3.5,72,0.00,CLR,,0.00,WeatherDisplay:10.37,2013-09-10 11:50:00,
2013-09-10 06:54:00,69.2,59.8,29.88,WSW,247,0.7,0.0,72,0.00,CLR,,0.00,WeatherDisplay:10.37,2013-09-10 11:54:00,
2013-09-10 06:55:00,69.3,59.9,29.88,WSW,247,0.0,0.0,72,0.00,CLR,,0.00,WeatherDisplay:10.37,2013-09-10 11:55:00,
2013-09-10 06:59:00,69.1,59.7,29.88,WSW,247,0.0,0.0,72,0.00,CLR,,0.00,WeatherDisplay:10.37,2013-09-10 11:59:00,
2013-09-10 07:00:00,69.2,59.8,29.88,WSW,247,0.0,0.0,72,0.00,CLR,,0.00,WeatherDisplay:10.37,2013-09-10 12:00:00,
2013-09-10 07:01:00,69.0,59.6,29.88,NNW,337,0.2,2.5,72,0.00,CLR,,0.00,WeatherDisplay:10.37,2013-09-10 12:01:00,
2013-09-10 07:04:00,69.2,59.8,29.88,SW,224,0.0,0.0,72,0.00,CLR,,0.00,WeatherDisplay:10.37,2013-09-10 12:04:00,
2013-09-10 07:05:00,69.2,59.8,29.88,SW,224,0.0,0.0,72,0.00,CLR,,0.00,WeatherDisplay:10.37,2013-09-10 12:05:00,
2013-09-10 07:06:00,69.2,59.8,29.88,SW,224,0.0,0.0,72,0.00,CLR,,0.00,WeatherDisplay:10.37,2013-09-10 12:06:00,
2013-09-10 07:07:00,69.1,59.7,29.88,SW,224,0.0,0.0,72,0.00,CLR,,0.00,WeatherDisplay:10.37,2013-09-10 12:07:00,
2013-09-10 07:09:00,69.1,59.7,29.88,SSE,150,0.9,3.5,72,0.00,CLR,,0.00,WeatherDisplay:10.37,2013-09-10 12:09:00,
2013-09-10 07:10:00,69.1,59.7,29.88,SSE,150,0.0,0.0,72,0.00,CLR,,0.00,WeatherDisplay:10.37,2013-09-10 12:10:00,
2013-09-10 07:11:00,69.1,59.7,29.88,SW,215,1.2,2.3,72,0.00,CLR,,0.00,WeatherDisplay:10.37,2013-09-10 12:11:00,
2013-09-10 07:12:00,69.0,59.6,29.88,SW,229,1.0,2.3,72,0.00,CLR,,0.00,WeatherDisplay:10.37,2013-09-10 12:12:00,
2013-09-10 07:15:00,69.2,59.8,29.88,SW,215,0.1,1.2,72,0.00,CLR,,0.00,WeatherDisplay:10.37,2013-09-10 12:15:00,
2013-09-10 07:16:00,69.3,59.9,29.88,SW,215,0.0,0.0,72,0.00,CLR,,0.00,WeatherDisplay:10.37,2013-09-10 12:16:00,
2013-09-10 07:18:00,69.3,59.9,29.88,SW,215,0.0,0.0,72,0.00,CLR,,0.00,WeatherDisplay:10.37,2013-09-10 12:18:00,
2013-09-10 07:20:00,69.3,59.9,29.88,SW,224,0.6,4.0,72,0.00,CLR,,0.00,WeatherDisplay:10.37,2013-09-10 12:20:00,
2013-09-10 07:21:00,69.4,60.0,29.88,SW,232,3.0,4.6,72,0.00,CLR,,0.00,WeatherDisplay:10.37,2013-09-10 12:21:00,
2013-09-10 07:24:00,69.5,60.1,29.88,SW,217,0.0,0.0,72,0.00,CLR,,0.00,WeatherDisplay:10.37,2013-09-10 12:24:00,
2013-09-10 07:25:00,69.5,60.1,29.88,SW,217,0.0,0.0,72,0.00,CLR,,0.00,WeatherDisplay:10.37,2013-09-10 12:25:00,
2013-09-10 07:26:00,69.4,60.0,29.88,SW,217,0.0,0.0,72,0.00,CLR,,0.00,WeatherDisplay:10.37,2013-09-10 12:26:00,
2013-09-10 07:29:00,69.5,60.1,29.88,SW,236,1.2,2.2,72,0.00,CLR,,0.00,WeatherDisplay:10.37,2013-09-10 12:29:00,
2013-09-10 07:30:00,69.6,60.2,29.88,SSW,196,1.1,3.5,72,0.00,CLR,,0.00,WeatherDisplay:10.37,2013-09-10 12:30:00,
2013-09-10 07:31:00,69.6,60.2,29.88,SSW,196,0.1,3.5,72,0.00,CLR,,0.00,WeatherDisplay:10.37,2013-09-10 12:31:00,
2013-09-10 07:32:00,69.6,60.2,29.88,South,189,0.3,2.3,72,0.00,CLR,,0.00,WeatherDisplay:10.37,2013-09-10 12:32:00,
2013-09-10 07:35:00,69.8,60.4,29.88,South,189,0.0,0.0,72,0.00,CLR,,0.00,WeatherDisplay:10.37,2013-09-10 12:35:00,
2013-09-10 07:36:00,69.7,60.3,29.88,South,189,0.0,0.0,72,0.00,CLR,,0.00,WeatherDisplay:10.37,2013-09-10 12:36:00,
2013-09-10 07:37:00,69.8,60.4,29.88,WNW,295,1.0,3.5,72,0.00,CLR,,0.00,WeatherDisplay:10.37,2013-09-10 12:37:00,
2013-09-10 07:38:00,69.8,60.4,29.88,WSW,254,0.1,2.9,72,0.00,CLR,,0.00,WeatherDisplay:10.37,2013-09-10 12:38:00,
2013-09-10 07:40:00,70.1,60.3,29.88,South,176,0.0,1.2,71,0.00,CLR,,0.00,WeatherDisplay:10.37,2013-09-10 12:40:00,
2013-09-10 07:41:00,70.1,60.3,29.88,SW,223,1.3,5.1,71,0.00,CLR,,0.00,WeatherDisplay:10.37,2013-09-10 12:41:00,
2013-09-10 07:42:00,70.2,60.4,29.88,SW,215,0.8,4.6,71,0.00,CLR,,0.00,WeatherDisplay:10.37,2013-09-10 12:42:00,
2013-09-10 07:43:00,70.4,60.5,29.88,SW,215,0.0,0.0,71,0.00,CLR,,0.00,WeatherDisplay:10.37,2013-09-10 12:43:00,
2013-09-10 07:45:00,70.5,60.6,29.88,WSW,243,0.0,1.2,71,0.00,CLR,,0.00,WeatherDisplay:10.37,2013-09-10 12:45:00,
2013-09-10 07:46:00,70.5,60.6,29.88,WSW,243,0.0,0.0,71,0.00,CLR,,0.00,WeatherDisplay:10.37,2013-09-10 12:46:00,
2013-09-10 07:47:00,70.6,60.7,29.88,WSW,243,0.0,0.0,71,0.00,CLR,,0.00,WeatherDisplay:10.37,2013-09-10 12:47:00,
2013-09-10 07:50:00,70.8,60.9,29.88,WSW,243,0.0,0.0,71,0.00,CLR,,0.00,WeatherDisplay:10.37,2013-09-10 12:50:00,
2013-09-10 07:51:00,70.8,60.5,29.89,SW,229,1.7,2.3,70,0.00,CLR,,0.00,WeatherDisplay:10.37,2013-09-10 12:51:00,
2013-09-10 07:52:00,71.0,60.7,29.89,West,264,1.2,7.0,70,0.00,CLR,,0.00,WeatherDisplay:10.37,2013-09-10 12:52:00,
2013-09-10 07:53:00,71.2,60.9,29.89,West,267,4.8,8.1,70,0.00,CLR,,0.00,WeatherDisplay:10.37,2013-09-10 12:53:00,
2013-09-10 07:55:00,71.3,60.6,29.89,SW,219,1.9,4.6,69,0.00,CLR,,0.00,WeatherDisplay:10.37,2013-09-10 12:55:00,
2013-09-10 07:56:00,71.5,60.4,29.89,WSW,257,3.1,4.8,68,0.00,CLR,,0.00,WeatherDisplay:10.37,2013-09-10 12:56:00,
2013-09-10 07:57:00,71.6,60.5,29.89,WSW,244,4.8,6.9,68,0.00,CLR,,0.00,WeatherDisplay:10.37,2013-09-10 12:57:00,
2013-09-10 07:58:00,71.6,60.5,29.89,West,270,4.9,9.2,68,0.00,CLR,,0.00,WeatherDisplay:10.37,2013-09-10 12:58:00,
2013-09-10 08:00:00,71.8,60.2,29.89,WSW,247,0.4,4.6,67,0.00,CLR,,0.00,WeatherDisplay:10.37,2013-09-10 13:00:00,
2013-09-10 08:01:00,71.9,60.3,29.89,SSW,200,0.6,2.7,67,0.00,CLR,,0.00,WeatherDisplay:10.37,2013-09-10 13:01:00,
2013-09-10 08:02:00,72.2,60.6,29.89,WSW,239,3.2,4.6,67,0.00,CLR,,0.00,WeatherDisplay:10.37,2013-09-10 13:02:00,
2013-09-10 08:03:00,72.4,60.4,29.89,WSW,243,3.1,6.9,66,0.00,CLR,,0.00,WeatherDisplay:10.37,2013-09-10 13:03:00,
2013-09-10 08:05:00,72.5,60.5,29.89,West,264,1.0,3.7,66,0.00,CLR,,0.00,WeatherDisplay:10.37,2013-09-10 13:05:00,
2013-09-10 08:06:00,72.6,60.6,29.89,SW,229,2.6,4.6,66,0.00,CLR,,0.00,WeatherDisplay:10.37,2013-09-10 13:06:00,
2013-09-10 08:07:00,72.8,60.8,29.89,West,263,3.1,5.5,66,0.00,CLR,,0.00,WeatherDisplay:10.37,2013-09-10 13:07:00,
2013-09-10 08:09:00,72.9,60.4,29.89,SW,233,4.8,6.9,65,0.00,CLR,,0.00,WeatherDisplay:10.37,2013-09-10 13:09:00,
2013-09-10 08:10:00,73.1,60.6,29.89,WSW,243,4.2,6.9,65,0.00,CLR,,0.00,WeatherDisplay:10.37,2013-09-10 13:10:00,
2013-09-10 08:11:00,73.3,60.4,29.89,SW,234,5.6,9.2,64,0.00,CLR,,0.00,WeatherDisplay:10.37,2013-09-10 13:11:00,
2013-09-10 08:12:00,73.3,60.4,29.89,SW,232,4.4,9.2,64,0.00,CLR,,0.00,WeatherDisplay:10.37,2013-09-10 13:12:00,
2013-09-10 08:13:00,73.4,60.5,29.89,SW,233,4.6,6.9,64,0.00,CLR,,0.00,WeatherDisplay:10.37,2013-09-10 13:13:00,
2013-09-10 08:14:00,73.5,60.6,29.89,WSW,241,4.9,6.9,64,0.00,CLR,,0.00,WeatherDisplay:10.37,2013-09-10 13:14:00,
2013-09-10 08:17:00,73.8,60.4,29.89,WSW,248,5.0,6.2,63,0.00,CLR,,0.00,WeatherDisplay:10.37,2013-09-10 13:17:00,
2013-09-10 08:18:00,73.9,60.5,29.89,WSW,256,3.6,5.8,63,0.00,CLR,,0.00,WeatherDisplay:10.37,2013-09-10 13:18:00,
2013-09-10 08:19:00,74.0,60.6,29.89,SW,230,2.3,3.5,63,0.00,CLR,,0.00,WeatherDisplay:10.37,2013-09-10 13:19:00,
2013-09-10 08:22:00,74.2,60.3,29.89,WSW,244,4.0,5.8,62,0.00,CLR,,0.00,WeatherDisplay:10.37,2013-09-10 13:22:00,
2013-09-10 08:23:00,74.4,60.5,29.89,SW,219,2.8,5.8,62,0.00,CLR,,0.00,WeatherDisplay:10.37,2013-09-10 13:23:00,
2013-09-10 08:24:00,74.3,60.4,29.89,SW,224,4.7,6.9,62,0.00,CLR,,0.00,WeatherDisplay:10.37,2013-09-10 13:24:00,
2013-09-10 08:27:00,74.7,60.4,29.90,WSW,257,4.9,8.1,61,0.00,CLR,,0.00,WeatherDisplay:10.37,2013-09-10 13:27:00,
2013-09-10 08:28:00,74.8,60.4,29.90,SW,229,5.1,5.8,61,0.00,CLR,,0.00,WeatherDisplay:10.37,2013-09-10 13:28:00,
2013-09-10 08:29:00,74.9,60.5,29.90,SSW,212,4.1,6.9,61,0.00,CLR,,0.00,WeatherDisplay:10.37,2013-09-10 13:29:00,
2013-09-10 08:32:00,75.1,60.7,29.90,WSW,251,5.0,10.7,61,0.00,CLR,,0.00,WeatherDisplay:10.37,2013-09-10 13:32:00,
2013-09-10 08:33:00,75.1,60.7,29.90,WSW,247,5.1,10.4,61,0.00,CLR,,0.00,WeatherDisplay:10.37,2013-09-10 13:33:00,
2013-09-10 08:35:00,75.3,60.5,29.90,WSW,240,5.2,6.9,60,0.00,CLR,,0.00,WeatherDisplay:10.37,2013-09-10 13:35:00,
2013-09-10 08:37:00,75.5,60.6,29.90,SSW,203,5.5,8.5,60,0.00,CLR,,0.00,WeatherDisplay:10.37,2013-09-10 13:37:00,
2013-09-10 08:38:00,75.6,60.7,29.89,WSW,240,5.8,10.4,60,0.00,CLR,,0.00,WeatherDisplay:10.37,2013-09-10 13:38:00,
2013-09-10 08:39:00,75.6,60.7,29.89,SSW,198,6.3,8.1,60,0.00,CLR,,0.00,WeatherDisplay:10.37,2013-09-10 13:39:00,
2013-09-10 08:40:00,75.7,60.8,29.89,WSW,237,6.0,9.2,60,0.00,CLR,,0.00,WeatherDisplay:10.37,2013-09-10 13:40:00,
2013-09-10 08:43:00,75.8,60.4,29.90,WSW,253,4.2,9.4,59,0.00,CLR,,0.00,WeatherDisplay:10.37,2013-09-10 13:43:00,
2013-09-10 08:44:00,75.9,60.5,29.90,SW,222,5.5,10.4,59,0.00,CLR,,0.00,WeatherDisplay:10.37,2013-09-10 13:44:00,
2013-09-10 08:45:00,75.9,60.5,29.90,WSW,254,6.7,10.3,59,0.00,CLR,,0.00,WeatherDisplay:10.37,2013-09-10 13:45:00,
2013-09-10 08:48:00,76.1,60.2,29.90,WSW,253,4.4,11.5,58,0.00,CLR,,0.00,WeatherDisplay:10.37,2013-09-10 13:48:00,
2013-09-10 08:49:00,76.2,60.3,29.90,WSW,251,4.2,6.9,58,0.00,CLR,,0.00,WeatherDisplay:10.37,2013-09-10 13:49:00,
2013-09-10 08:50:00,76.2,60.3,29.90,SW,222,2.4,4.6,58,0.00,CLR,,0.00,WeatherDisplay:10.37,2013-09-10 13:50:00,
2013-09-10 08:53:00,76.4,60.5,29.90,WSW,258,4.8,6.9,58,0.00,CLR,,0.00,WeatherDisplay:10.37,2013-09-10 13:53:00,
2013-09-10 08:54:00,76.5,60.1,29.90,West,263,6.5,10.4,57,0.00,CLR,,0.00,WeatherDisplay:10.37,2013-09-10 13:54:00,
2013-09-10 08:55:00,76.5,60.1,29.90,SW,233,5.7,10.4,57,0.00,CLR,,0.00,WeatherDisplay:10.37,2013-09-10 13:55:00,
2013-09-10 08:58:00,76.8,60.4,29.90,WSW,251,4.5,6.9,57,0.00,CLR,,0.00,WeatherDisplay:10.37,2013-09-10 13:58:00,
2013-09-10 08:59:00,76.9,60.5,29.90,West,265,5.2,9.2,57,0.00,CLR,,0.00,WeatherDisplay:10.37,2013-09-10 13:59:00,
2013-09-10 09:00:00,76.9,60.5,29.90,WNW,289,3.9,6.9,57,0.00,CLR,,0.00,WeatherDisplay:10.37,2013-09-10 14:00:00,
2013-09-10 09:01:00,77.0,60.6,29.90,SW,230,3.3,5.8,57,0.00,CLR,,0.00,WeatherDisplay:10.37,2013-09-10 14:01:00,
2013-09-10 09:03:00,77.1,60.7,29.90,SSW,206,6.0,9.2,57,0.00,CLR,,0.00,WeatherDisplay:10.37,2013-09-10 14:03:00,
2013-09-10 09:04:00,77.2,60.3,29.90,WSW,256,6.9,12.7,56,0.00,CLR,,0.00,WeatherDisplay:10.37,2013-09-10 14:04:00,
2013-09-10 09:05:00,77.2,60.3,29.90,West,270,4.2,12.7,56,0.00,CLR,,0.00,WeatherDisplay:10.37,2013-09-10 14:05:00,
2013-09-10 09:08:00,77.4,60.0,29.90,WSW,258,7.3,10.4,55,0.00,CLR,,0.00,WeatherDisplay:10.37,2013-09-10 14:08:00,
2013-09-10 09:09:00,77.5,60.1,29.90,South,188,4.9,10.4,55,0.00,CLR,,0.00,WeatherDisplay:10.37,2013-09-10 14:09:00,
2013-09-10 09:12:00,77.7,60.2,29.90,SSW,208,4.0,12.7,55,0.00,CLR,,0.00,WeatherDisplay:10.37,2013-09-10 14:12:00,
2013-09-10 09:13:00,77.7,60.2,29.90,WSW,237,3.6,6.3,55,0.00,CLR,,0.00,WeatherDisplay:10.37,2013-09-10 14:13:00,
2013-09-10 09:14:00,77.9,60.4,29.90,WSW,240,6.5,10.4,55,0.00,CLR,,0.00,WeatherDisplay:10.37,2013-09-10 14:14:00,
2013-09-10 09:15:00,77.9,60.4,29.90,WSW,256,5.9,11.5,55,0.00,CLR,,0.00,WeatherDisplay:10.37,2013-09-10 14:15:00,
2013-09-10 09:18:00,78.0,60.5,29.90,West,271,4.8,6.9,55,0.00,CLR,,0.00,WeatherDisplay:10.37,2013-09-10 14:18:00,
2013-09-10 09:19:00,78.1,60.6,29.90,West,274,5.4,8.1,55,0.00,CLR,,0.00,WeatherDisplay:10.37,2013-09-10 14:19:00,
2013-09-10 09:20:00,78.1,60.1,29.90,WSW,246,5.6,8.1,54,0.00,CLR,,0.00,WeatherDisplay:10.37,2013-09-10 14:20:00,
2013-09-10 09:24:00,78.4,59.3,29.90,SW,232,8.1,12.3,52,0.00,CLR,,0.00,WeatherDisplay:10.37,2013-09-10 14:24:00,
2013-09-10 09:25:00,78.4,59.3,29.90,West,261,8.5,15.0,52,0.00,CLR,,0.00,WeatherDisplay:10.37,2013-09-10 14:25:00,
2013-09-10 09:29:00,78.7,59.6,29.90,WSW,243,6.1,10.4,52,0.00,CLR,,0.00,WeatherDisplay:10.37,2013-09-10 14:29:00,
2013-09-10 09:30:00,78.8,59.7,29.90,WSW,239,6.9,9.2,52,0.00,CLR,,0.00,WeatherDisplay:10.37,2013-09-10 14:30:00,
2013-09-10 09:34:00,79.0,59.9,29.90,WSW,241,7.9,13.9,52,0.00,CLR,,0.00,WeatherDisplay:10.37,2013-09-10 14:34:00,
2013-09-10 09:35:00,78.9,59.2,29.90,WSW,244,7.7,13.8,51,0.00,CLR,,0.00,WeatherDisplay:10.37,2013-09-10 14:35:00,
2013-09-10 09:39:00,79.1,60.0,29.90,West,265,6.2,12.7,52,0.00,CLR,,0.00,WeatherDisplay:10.37,2013-09-10 14:39:00,
2013-09-10 09:40:00,79.2,60.1,29.90,WSW,253,5.4,9.2,52,0.00,CLR,,0.00,WeatherDisplay:10.37,2013-09-10 14:40:00,
2013-09-10 09:41:00,79.2,60.1,29.90,NW,305,5.8,9.2,52,0.00,CLR,,0.00,WeatherDisplay:10.37,2013-09-10 14:41:00,
2013-09-10 09:44:00,79.3,59.6,29.90,West,272,3.7,9.2,51,0.00,CLR,,0.00,WeatherDisplay:10.37,2013-09-10 14:44:00,
2013-09-10 09:45:00,79.4,59.7,29.90,SW,234,8.2,16.1,51,0.00,CLR,,0.00,WeatherDisplay:10.37,2013-09-10 14:45:00,
2013-09-10 09:46:00,79.4,59.7,29.90,SW,233,7.1,11.5,51,0.00,CLR,,0.00,WeatherDisplay:10.37,2013-09-10 14:46:00,
2013-09-10 09:49:00,79.5,59.8,29.90,SW,222,8.0,10.6,51,0.00,CLR,,0.00,WeatherDisplay:10.37,2013-09-10 14:49:00,
2013-09-10 09:50:00,79.7,59.4,29.90,SW,233,6.8,12.7,50,0.00,CLR,,0.00,WeatherDisplay:10.37,2013-09-10 14:50:00,
2013-09-10 09:51:00,79.7,59.4,29.90,West,261,7.0,9.2,50,0.00,CLR,,0.00,WeatherDisplay:10.37,2013-09-10 14:51:00,
2013-09-10 09:55:00,79.8,59.5,29.90,West,275,7.1,11.5,50,0.00,CLR,,0.00,WeatherDisplay:10.37,2013-09-10 14:55:00,
2013-09-10 09:56:00,79.9,59.6,29.90,WSW,247,6.6,13.5,50,0.00,CLR,,0.00,WeatherDisplay:10.37,2013-09-10 14:56:00,
2013-09-10 09:58:00,79.9,59.6,29.90,West,261,7.6,14.4,50,0.00,CLR,,0.00,WeatherDisplay:10.37,2013-09-10 14:58:00,
2013-09-10 10:00:00,80.0,59.7,29.90,WNW,287,5.9,12.7,50,0.00,CLR,,0.00,WeatherDisplay:10.37,2013-09-10 15:00:00,
2013-09-10 10:01:00,80.1,59.8,29.90,West,274,5.0,12.7,50,0.00,CLR,,0.00,WeatherDisplay:10.37,2013-09-10 15:01:00,
2013-09-10 10:02:00,80.1,59.8,29.91,SW,224,4.9,8.1,50,0.00,CLR,,0.00,WeatherDisplay:10.37,2013-09-10 15:02:00,
2013-09-10 10:03:00,80.2,59.9,29.91,West,277,5.5,13.8,50,0.00,CLR,,0.00,WeatherDisplay:10.37,2013-09-10 15:03:00,
2013-09-10 10:05:00,80.3,60.0,29.90,West,265,4.4,8.1,50,0.00,CLR,,0.00,WeatherDisplay:10.37,2013-09-10 15:05:00,
2013-09-10 10:06:00,80.2,59.9,29.91,WNW,285,3.2,8.1,50,0.00,CLR,,0.00,WeatherDisplay:10.37,2013-09-10 15:06:00,
2013-09-10 10:07:00,80.4,60.1,29.91,West,261,5.9,11.5,50,0.00,CLR,,0.00,WeatherDisplay:10.37,2013-09-10 15:07:00,
2013-09-10 10:09:00,80.4,60.1,29.91,South,182,4.4,8.7,50,0.00,CLR,,0.00,WeatherDisplay:10.37,2013-09-10 15:09:00,
2013-09-10 10:10:00,80.5,60.1,29.91,SSW,213,6.6,10.4,50,0.00,CLR,,0.00,WeatherDisplay:10.37,2013-09-10 15:10:00,
2013-09-10 10:11:00,80.3,60.0,29.91,West,268,6.2,9.2,50,0.00,CLR,,0.00,WeatherDisplay:10.37,2013-09-10 15:11:00,
2013-09-10 10:12:00,80.3,60.0,29.91,SW,234,6.2,9.2,50,0.00,CLR,,0.00,WeatherDisplay:10.37,2013-09-10 15:12:00,
2013-09-10 10:13:00,80.4,60.1,29.91,WSW,248,4.1,6.9,50,0.00,CLR,,0.00,WeatherDisplay:10.37,2013-09-10 15:13:00,
2013-09-10 10:14:00,80.6,60.2,29.91,West,275,4.0,8.1,50,0.00,CLR,,0.00,WeatherDisplay:10.37,2013-09-10 15:14:00,
2013-09-10 10:15:00,80.6,60.2,29.91,SW,227,5.0,10.4,50,0.00,CLR,,0.00,WeatherDisplay:10.37,2013-09-10 15:15:00,
2013-09-10 10:16:00,80.7,60.3,29.91,WSW,251,5.0,10.4,50,0.00,CLR,,0.00,WeatherDisplay:10.37,2013-09-10 15:16:00,
2013-09-10 10:17:00,80.8,60.4,29.91,WSW,251,5.7,8.1,50,0.00,CLR,,0.00,WeatherDisplay:10.37,2013-09-10 15:17:00,
2013-09-10 10:19:00,80.9,59.9,29.91,SW,232,4.3,8.8,49,0.00,CLR,,0.00,WeatherDisplay:10.37,2013-09-10 15:19:00,
2013-09-10 10:20:00,80.9,59.9,29.91,West,275,5.3,6.9,49,0.00,CLR,,0.00,WeatherDisplay:10.37,2013-09-10 15:20:00,
2013-09-10 10:21:00,81.0,60.0,29.91,WSW,246,4.8,11.5,49,0.00,CLR,,0.00,WeatherDisplay:10.37,2013-09-10 15:21:00,
2013-09-10 10:22:00,81.1,60.1,29.91,WSW,243,7.2,12.7,49,0.00,CLR,,0.00,WeatherDisplay:10.37,2013-09-10 15:22:00,
2013-09-10 10:25:00,81.3,59.7,29.91,WSW,251,6.3,9.2,48,0.00,CLR,,0.00,WeatherDisplay:10.37,2013-09-10 15:25:00,
2013-09-10 10:27:00,81.4,60.4,29.91,West,274,4.6,10.4,49,0.00,CLR,,0.00,WeatherDisplay:10.37,2013-09-10 15:27:00,
2013-09-10 10:30:00,81.5,59.9,29.91,West,278,6.6,11.5,48,0.00,CLR,,0.00,WeatherDisplay:10.37,2013-09-10 15:30:00,
2013-09-10 10:33:00,81.5,59.9,29.91,West,272,8.1,10.4,48,0.00,CLR,,0.00,WeatherDisplay:10.37,2013-09-10 15:33:00,
2013-09-10 10:35:00,81.8,59.6,29.91,WSW,244,7.7,9.2,47,0.00,CLR,,0.00,WeatherDisplay:10.37,2013-09-10 15:35:00,
2013-09-10 10:37:00,81.9,59.7,29.91,WSW,258,8.1,13.8,47,0.00,CLR,,0.00,WeatherDisplay:10.37,2013-09-10 15:37:00,
2013-09-10 10:38:00,81.9,59.7,29.91,WSW,247,7.3,13.8,47,0.00,CLR,,0.00,WeatherDisplay:10.37,2013-09-10 15:38:00,
2013-09-10 10:40:00,82.1,59.9,29.91,SW,215,4.3,6.1,47,0.00,CLR,,0.00,WeatherDisplay:10.37,2013-09-10 15:40:00,
2013-09-10 10:42:00,82.1,59.9,29.91,WSW,251,4.4,10.4,47,0.00,CLR,,0.00,WeatherDisplay:10.37,2013-09-10 15:42:00,
2013-09-10 10:43:00,82.3,60.1,29.91,West,278,5.0,9.2,47,0.00,CLR,,0.00,WeatherDisplay:10.37,2013-09-10 15:43:00,
2013-09-10 10:45:00,82.4,60.1,29.91,WNW,287,6.9,12.7,47,0.00,CLR,,0.00,WeatherDisplay:10.37,2013-09-10 15:45:00,
2013-09-10 10:47:00,82.5,60.2,29.91,West,274,4.9,7.0,47,0.00,CLR,,0.00,WeatherDisplay:10.37,2013-09-10 15:47:00,
2013-09-10 10:48:00,82.4,60.1,29.91,SW,219,5.7,8.1,47,0.00,CLR,,0.00,WeatherDisplay:10.37,2013-09-10 15:48:00,
2013-09-10 10:49:00,82.5,60.2,29.91,West,280,5.0,10.4,47,0.00,CLR,,0.00,WeatherDisplay:10.37,2013-09-10 15:49:00,
2013-09-10 10:50:00,82.7,59.8,29.91,SW,234,6.4,8.5,46,0.00,CLR,,0.00,WeatherDisplay:10.37,2013-09-10 15:50:00,
2013-09-10 10:51:00,82.7,59.8,29.91,West,280,7.8,12.7,46,0.00,CLR,,0.00,WeatherDisplay:10.37,2013-09-10 15:51:00,
2013-09-10 10:52:00,82.8,59.9,29.91,WSW,244,6.1,13.2,46,0.00,CLR,,0.00,WeatherDisplay:10.37,2013-09-10 15:52:00,
2013-09-10 10:53:00,82.7,59.2,29.91,SW,217,8.4,15.0,45,0.00,CLR,,0.00,WeatherDisplay:10.37,2013-09-10 15:53:00,
2013-09-10 10:54:00,82.8,59.9,29.91,WSW,246,7.1,11.5,46,0.00,CLR,,0.00,WeatherDisplay:10.37,2013-09-10 15:54:00,
2013-09-10 10:56:00,82.8,59.9,29.91,West,261,7.0,13.8,46,0.00,CLR,,0.00,WeatherDisplay:10.37,2013-09-10 15:56:00,
2013-09-10 10:57:00,83.0,59.5,29.91,WSW,241,8.2,11.5,45,0.00,CLR,,0.00,WeatherDisplay:10.37,2013-09-10 15:57:00,
2013-09-10 10:58:00,83.0,59.5,29.91,WSW,248,6.6,13.8,45,0.00,CLR,,0.00,WeatherDisplay:10.37,2013-09-10 15:58:00,
2013-09-10 10:59:00,83.0,60.1,29.91,NW,304,6.0,9.2,46,0.00,CLR,,0.00,WeatherDisplay:10.37,2013-09-10 15:59:00,
2013-09-10 11:01:00,83.1,60.2,29.91,SW,224,6.5,9.2,46,0.00,CLR,,0.00,WeatherDisplay:10.37,2013-09-10 16:01:00,
2013-09-10 11:02:00,83.1,60.2,29.91,WNW,289,2.7,9.2,46,0.00,CLR,,0.00,WeatherDisplay:10.37,2013-09-10 16:02:00,
2013-09-10 11:03:00,83.2,60.3,29.91,West,261,2.6,7.5,46,0.00,CLR,,0.00,WeatherDisplay:10.37,2013-09-10 16:03:00,
2013-09-10 11:04:00,83.2,60.3,29.91,SW,219,3.7,6.9,46,0.00,CLR,,0.00,WeatherDisplay:10.37,2013-09-10 16:04:00,
2013-09-10 11:06:00,83.4,61.1,29.91,West,272,6.1,10.4,47,0.00,CLR,,0.00,WeatherDisplay:10.37,2013-09-10 16:06:00,
2013-09-10 11:08:00,83.5,60.5,29.91,West,268,7.3,9.2,46,0.00,CLR,,0.00,WeatherDisplay:10.37,2013-09-10 16:08:00,
2013-09-10 11:09:00,83.5,60.5,29.91,WSW,244,5.3,11.5,46,0.00,CLR,,0.00,WeatherDisplay:10.37,2013-09-10 16:09:00,
2013-09-10 11:11:00,83.5,60.5,29.91,SSW,212,5.6,8.3,46,0.00,CLR,,0.00,WeatherDisplay:10.37,2013-09-10 16:11:00,
2013-09-10 11:13:00,83.7,60.7,29.91,SSW,203,6.0,12.7,46,0.00,CLR,,0.00,WeatherDisplay:10.37,2013-09-10 16:13:00,
2013-09-10 11:14:00,83.7,60.7,29.91,SW,219,6.5,10.4,46,0.00,CLR,,0.00,WeatherDisplay:10.37,2013-09-10 16:14:00,
2013-09-10 11:16:00,83.7,60.1,29.91,West,270,7.6,12.7,45,0.00,CLR,,0.00,WeatherDisplay:10.37,2013-09-10 16:16:00,
2013-09-10 11:19:00,83.8,59.6,29.91,WSW,251,7.7,10.4,44,0.00,CLR,,0.00,WeatherDisplay:10.37,2013-09-10 16:19:00,
2013-09-10 11:21:00,83.9,60.3,29.91,SSW,203,5.3,10.4,45,0.00,CLR,,0.00,WeatherDisplay:10.37,2013-09-10 16:21:00,
2013-09-10 11:24:00,84.0,60.4,29.91,SSW,210,5.5,8.1,45,0.00,CLR,,0.00,WeatherDisplay:10.37,2013-09-10 16:24:00,
2013-09-10 11:25:00,84.2,60.6,29.91,WSW,246,5.5,12.1,45,0.00,CLR,,0.00,WeatherDisplay:10.37,2013-09-10 16:25:00,
2013-09-10 11:26:00,84.1,59.8,29.91,SW,232,7.7,12.7,44,0.00,CLR,,0.00,WeatherDisplay:10.37,2013-09-10 16:26:00,
2013-09-10 11:30:00,84.4,60.1,29.92,WSW,250,5.1,11.5,44,0.00,CLR,,0.00,WeatherDisplay:10.37,2013-09-10 16:30:00,
2013-09-10 11:31:00,84.3,59.4,29.92,SSW,199,6.5,18.4,43,0.00,CLR,,0.00,WeatherDisplay:10.37,2013-09-10 16:31:00,
2013-09-10 11:35:00,84.4,59.5,29.92,SSW,210,6.3,11.5,43,0.00,CLR,,0.00,WeatherDisplay:10.37,2013-09-10 16:35:00,
2013-09-10 11:36:00,84.6,59.6,29.92,SW,234,6.9,12.7,43,0.00,CLR,,0.00,WeatherDisplay:10.37,2013-09-10 16:36:00,
2013-09-10 11:37:00,84.7,59.7,29.92,WSW,247,7.2,12.6,43,0.00,CLR,,0.00,WeatherDisplay:10.37,2013-09-10 16:37:00,
2013-09-10 11:40:00,84.7,59.7,29.91,SW,229,6.7,8.1,43,0.00,CLR,,0.00,WeatherDisplay:10.37,2013-09-10 16:40:00,
2013-09-10 11:41:00,84.8,59.8,29.91,SW,222,6.2,10.4,43,0.00,CLR,,0.00,WeatherDisplay:10.37,2013-09-10 16:41:00,
2013-09-10 11:42:00,84.8,59.8,29.91,SW,230,6.4,9.7,43,0.00,CLR,,0.00,WeatherDisplay:10.37,2013-09-10 16:42:00,
2013-09-10 11:45:00,85.0,59.3,29.91,SW,217,6.1,10.4,42,0.00,CLR,,0.00,WeatherDisplay:10.37,2013-09-10 16:45:00,
2013-09-10 11:46:00,85.0,59.3,29.91,West,265,8.0,13.8,42,0.00,CLR,,0.00,WeatherDisplay:10.37,2013-09-10 16:46:00,
2013-09-10 11:48:00,85.1,59.4,29.91,WSW,250,5.9,9.2,42,0.00,CLR,,0.00,WeatherDisplay:10.37,2013-09-10 16:48:00,
2013-09-10 11:50:00,85.3,59.6,29.91,West,278,5.4,8.1,42,0.00,CLR,,0.00,WeatherDisplay:10.37,2013-09-10 16:50:00,
2013-09-10 11:51:00,85.3,59.6,29.91,West,261,5.4,9.2,42,0.00,CLR,,0.00,WeatherDisplay:10.37,2013-09-10 16:51:00,
2013-09-10 11:53:00,85.5,59.8,29.91,SW,227,6.8,12.7,42,0.00,CLR,,0.00,WeatherDisplay:10.37,2013-09-10 16:53:00,
2013-09-10 11:55:00,85.6,60.5,29.91,NW,304,3.2,5.8,43,0.00,CLR,,0.00,WeatherDisplay:10.37,2013-09-10 16:55:00,
2013-09-10 11:56:00,85.7,60.0,29.92,SW,229,5.0,8.1,42,0.00,CLR,,0.00,WeatherDisplay:10.37,2013-09-10 16:56:00,
2013-09-10 11:57:00,85.7,60.0,29.92,WSW,247,5.0,8.1,42,0.00,CLR,,0.00,WeatherDisplay:10.37,2013-09-10 16:57:00,
2013-09-10 11:58:00,85.9,60.1,29.91,WNW,292,5.7,5.8,42,0.00,CLR,,0.00,WeatherDisplay:10.37,2013-09-10 16:58:00,
2013-09-10 12:00:00,86.0,60.2,29.91,SW,230,4.5,6.9,42,0.00,CLR,,0.00,WeatherDisplay:10.37,2013-09-10 17:00:00,
2013-09-10 12:01:00,86.0,60.2,29.91,WNW,295,4.3,5.8,42,0.00,CLR,,0.00,WeatherDisplay:10.37,2013-09-10 17:01:00,
2013-09-10 12:02:00,86.0,60.2,29.91,WSW,258,7.6,7.6,42,0.00,CLR,,0.00,WeatherDisplay:10.37,2013-09-10 17:02:00,
2013-09-10 12:04:00,86.1,61.0,29.91,SW,226,3.3,6.9,43,0.00,CLR,,0.00,WeatherDisplay:10.37,2013-09-10 17:04:00,
2013-09-10 12:05:00,86.3,61.2,29.91,West,278,2.6,5.8,43,0.00,CLR,,0.00,WeatherDisplay:10.37,2013-09-10 17:05:00,
2013-09-10 12:06:00,86.2,61.1,29.91,NNE,17,2.8,5.8,43,0.00,CLR,,0.00,WeatherDisplay:10.37,2013-09-10 17:06:00,
2013-09-10 12:07:00,86.3,61.2,29.91,SW,219,2.0,4.6,43,0.00,CLR,,0.00,WeatherDisplay:10.37,2013-09-10 17:07:00,
2013-09-10 12:10:00,86.5,60.0,29.91,WSW,256,6.6,12.7,41,0.00,CLR,,0.00,WeatherDisplay:10.37,2013-09-10 17:10:00,
2013-09-10 12:11:00,86.6,60.8,29.91,SW,223,4.9,6.9,42,0.00,CLR,,0.00,WeatherDisplay:10.37,2013-09-10 17:11:00,
2013-09-10 12:12:00,86.6,60.8,29.92,South,191,4.1,9.2,42,0.00,CLR,,0.00,WeatherDisplay:10.37,2013-09-10 17:12:00,
2013-09-10 12:15:00,86.9,61.0,29.91,WNW,285,4.4,10.4,42,0.00,CLR,,0.00,WeatherDisplay:10.37,2013-09-10 17:15:00,
2013-09-10 12:16:00,86.9,60.4,29.91,SSW,199,4.9,9.2,41,0.00,CLR,,0.00,WeatherDisplay:10.37,2013-09-10 17:16:00,
2013-09-10 12:17:00,87.0,60.5,29.91,WNW,284,6.0,9.8,41,0.00,CLR,,0.00,WeatherDisplay:10.37,2013-09-10 17:17:00,
2013-09-10 12:21:00,87.2,60.6,29.91,WSW,251,5.7,10.4,41,0.00,CLR,,0.00,WeatherDisplay:10.37,2013-09-10 17:21:00,
2013-09-10 12:22:00,87.3,60.7,29.91,West,270,3.2,9.2,41,0.00,CLR,,0.00,WeatherDisplay:10.37,2013-09-10 17:22:00,
2013-09-10 12:26:00,87.5,60.2,29.92,West,270,5.9,12.7,40,0.00,CLR,,0.00,WeatherDisplay:10.37,2013-09-10 17:26:00,
2013-09-10 12:27:00,87.5,60.2,29.92,West,267,4.3,8.1,40,0.00,CLR,,0.00,WeatherDisplay:10.37,2013-09-10 17:27:00,
2013-09-10 12:28:00,87.6,60.3,29.92,WSW,248,7.1,11.5,40,0.00,CLR,,0.00,WeatherDisplay:10.37,2013-09-10 17:28:00,
2013-09-10 12:31:00,87.8,60.5,29.92,WSW,256,5.0,9.2,40,0.00,CLR,,0.00,WeatherDisplay:10.37,2013-09-10 17:31:00,
2013-09-10 12:32:00,87.8,60.5,29.92,WNW,292,5.9,8.1,40,0.00,CLR,,0.00,WeatherDisplay:10.37,2013-09-10 17:32:00,
2013-09-10 12:33:00,87.8,60.5,29.92,WSW,239,4.4,8.1,40,0.00,CLR,,0.00,WeatherDisplay:10.37,2013-09-10 17:33:00,
2013-09-10 12:36:00,88.1,60.7,29.92,SSW,196,5.9,8.1,40,0.00,CLR,,0.00,WeatherDisplay:10.37,2013-09-10 17:36:00,
2013-09-10 12:37:00,88.2,60.8,29.92,SW,220,5.7,11.3,40,0.00,CLR,,0.00,WeatherDisplay:10.37,2013-09-10 17:37:00,
2013-09-10 12:38:00,88.2,60.1,29.92,WSW,239,6.6,12.7,39,0.00,CLR,,0.00,WeatherDisplay:10.37,2013-09-10 17:38:00,
2013-09-10 12:42:00,88.5,59.7,29.92,South,179,3.2,8.1,38,0.00,CLR,,0.00,WeatherDisplay:10.37,2013-09-10 17:42:00,
2013-09-10 12:44:00,88.6,60.5,29.92,WSW,250,5.0,12.1,39,0.00,CLR,,0.00,WeatherDisplay:10.37,2013-09-10 17:44:00,
2013-09-10 12:47:00,88.7,59.8,29.92,WSW,240,7.5,9.9,38,0.00,CLR,,0.00,WeatherDisplay:10.37,2013-09-10 17:47:00,
2013-09-10 12:48:00,88.9,59.3,29.92,WSW,257,7.6,16.1,37,0.00,CLR,,0.00,WeatherDisplay:10.37,2013-09-10 17:48:00,
2013-09-10 12:49:00,88.8,59.2,29.91,North,354,5.6,9.2,37,0.00,CLR,,0.00,WeatherDisplay:10.37,2013-09-10 17:49:00,
2013-09-10 12:52:00,88.9,60.0,29.91,West,270,5.3,11.5,38,0.00,CLR,,0.00,WeatherDisplay:10.37,2013-09-10 17:52:00,
2013-09-10 12:53:00,89.0,60.1,29.91,SW,215,4.9,8.1,38,0.00,CLR,,0.00,WeatherDisplay:10.37,2013-09-10 17:53:00,
2013-09-10 12:54:00,89.1,59.4,29.91,West,264,9.4,13.8,37,0.00,CLR,,0.00,WeatherDisplay:10.37,2013-09-10 17:54:00,
2013-09-10 12:57:00,89.0,58.6,29.91,West,277,10.2,16.1,36,0.00,CLR,,0.00,WeatherDisplay:10.37,2013-09-10 17:57:00,
2013-09-10 12:58:00,89.0,58.6,29.91,West,268,9.4,18.4,36,0.00,CLR,,0.00,WeatherDisplay:10.37,2013-09-10 17:58:00,
2013-09-10 13:00:00,89.2,60.3,29.91,South,185,3.4,6.9,38,0.00,CLR,,0.00,WeatherDisplay:10.37,2013-09-10 18:00:00,
2013-09-10 13:02:00,89.3,59.6,29.91,West,278,6.0,11.5,37,0.00,CLR,,0.00,WeatherDisplay:10.37,2013-09-10 18:02:00,
2013-09-10 13:03:00,89.3,60.4,29.91,WSW,253,6.7,12.7,38,0.00,CLR,,0.00,WeatherDisplay:10.37,2013-09-10 18:03:00,
2013-09-10 13:04:00,89.4,59.7,29.91,WSW,243,6.6,13.8,37,0.00,CLR,,0.00,WeatherDisplay:10.37,2013-09-10 18:04:00,
2013-09-10 13:06:00,89.5,59.8,29.91,SW,234,6.3,9.2,37,0.00,CLR,,0.00,WeatherDisplay:10.37,2013-09-10 18:06:00,
2013-09-10 13:07:00,89.7,60.0,29.91,SW,220,5.9,9.2,37,0.00,CLR,,0.00,WeatherDisplay:10.37,2013-09-10 18:07:00,
2013-09-10 13:08:00,89.7,59.2,29.91,WSW,247,7.9,9.2,36,0.00,CLR,,0.00,WeatherDisplay:10.37,2013-09-10 18:08:00,
2013-09-10 13:09:00,89.7,60.0,29.91,WNW,298,6.3,11.5,37,0.00,CLR,,0.00,WeatherDisplay:10.37,2013-09-10 18:09:00,
2013-09-10 13:12:00,89.9,59.4,29.91,West,265,6.2,9.2,36,0.00,CLR,,0.00,WeatherDisplay:10.37,2013-09-10 18:12:00,
2013-09-10 13:13:00,89.7,59.2,29.91,WSW,243,4.6,10.4,36,0.00,CLR,,0.00,WeatherDisplay:10.37,2013-09-10 18:13:00,
2013-09-10 13:14:00,89.9,59.4,29.91,WSW,240,4.5,7.3,36,0.00,CLR,,0.00,WeatherDisplay:10.37,2013-09-10 18:14:00,
2013-09-10 13:15:00,89.9,59.4,29.91,WSW,250,6.2,9.2,36,0.00,CLR,,0.00,WeatherDisplay:10.37,2013-09-10 18:15:00,
2013-09-10 13:17:00,90.0,59.5,29.91,NW,326,6.1,11.5,36,0.00,CLR,,0.00,WeatherDisplay:10.37,2013-09-10 18:17:00,
2013-09-10 13:18:00,90.1,59.5,29.91,West,267,4.9,9.2,36,0.00,CLR,,0.00,WeatherDisplay:10.37,2013-09-10 18:18:00,
2013-09-10 13:19:00,90.1,59.5,29.91,West,270,4.9,10.4,36,0.00,CLR,,0.00,WeatherDisplay:10.37,2013-09-10 18:19:00,
2013-09-10 13:20:00,90.1,58.8,29.91,SW,215,5.4,9.2,35,0.00,CLR,,0.00,WeatherDisplay:10.37,2013-09-10 18:20:00,
2013-09-10 13:21:00,90.3,59.7,29.91,SW,220,7.5,10.4,36,0.00,CLR,,0.00,WeatherDisplay:10.37,2013-09-10 18:21:00,
2013-09-10 13:23:00,90.4,59.0,29.91,WNW,291,8.2,11.5,35,0.00,CLR,,0.00,WeatherDisplay:10.37,2013-09-10 18:23:00,
2013-09-10 13:24:00,90.6,59.2,29.91,WNW,287,6.8,12.3,35,0.00,CLR,,0.00,WeatherDisplay:10.37,2013-09-10 18:24:00,
2013-09-10 13:25:00,90.4,59.0,29.91,WSW,247,7.6,12.7,35,0.00,CLR,,0.00,WeatherDisplay:10.37,2013-09-10 18:25:00,
2013-09-10 13:27:00,90.6,58.4,29.91,WSW,237,6.4,9.2,34,0.00,CLR,,0.00,WeatherDisplay:10.37,2013-09-10 18:27:00,
2013-09-10 13:28:00,90.6,58.4,29.91,SW,236,7.9,11.5,34,0.00,CLR,,0.00,WeatherDisplay:10.37,2013-09-10 18:28:00,
2013-09-10 13:29:00,90.7,58.5,29.91,SSW,208,5.4,11.5,34,0.00,CLR,,0.00,WeatherDisplay:10.37,2013-09-10 18:29:00,
2013-09-10 13:30:00,90.7,60.1,29.91,West,278,5.6,6.9,36,0.00,CLR,,0.00,WeatherDisplay:10.37,2013-09-10 18:30:00,
2013-09-10 13:32:00,90.8,60.2,29.91,SW,227,4.5,6.7,36,0.00,CLR,,0.00,WeatherDisplay:10.37,2013-09-10 18:32:00,
2013-09-10 13:33:00,90.9,60.3,29.91,SW,227,5.6,7.3,36,0.00,CLR,,0.00,WeatherDisplay:10.37,2013-09-10 18:33:00,
2013-09-10 13:34:00,91.0,60.3,29.91,SW,215,5.3,10.4,36,0.00,CLR,,0.00,WeatherDisplay:10.37,2013-09-10 18:34:00,
2013-09-10 13:35:00,91.1,59.6,29.90,SW,232,4.8,8.1,35,0.00,CLR,,0.00,WeatherDisplay:10.37,2013-09-10 18:35:00,
2013-09-10 13:37:00,91.2,59.7,29.90,West,272,5.8,9.6,35,0.00,CLR,,0.00,WeatherDisplay:10.37,2013-09-10 18:37:00,
2013-09-10 13:38:00,91.3,59.0,29.90,WSW,240,9.1,9.2,34,0.00,CLR,,0.00,WeatherDisplay:10.37,2013-09-10 18:38:00,
2013-09-10 13:39:00,91.4,59.1,29.90,WSW,243,7.5,15.0,34,0.00,CLR,,0.00,WeatherDisplay:10.37,2013-09-10 18:39:00,
2013-09-10 13:40:00,91.4,59.1,29.90,West,265,7.3,10.4,34,0.00,CLR,,0.00,WeatherDisplay:10.37,2013-09-10 18:40:00,
2013-09-10 13:43:00,91.6,59.3,29.90,SSW,209,5.4,6.9,34,0.00,CLR,,0.00,WeatherDisplay:10.37,2013-09-10 18:43:00,
2013-09-10 13:45:00,91.8,59.4,29.90,SW,227,6.4,9.2,34,0.00,CLR,,0.00,WeatherDisplay:10.37,2013-09-10 18:45:00,
2013-09-10 13:46:00,91.9,59.5,29.90,WSW,239,5.6,9.2,34,0.00,CLR,,0.00,WeatherDisplay:10.37,2013-09-10 18:46:00,
2013-09-10 13:48:00,92.1,59.7,29.90,SW,233,7.3,11.5,34,0.00,CLR,,0.00,WeatherDisplay:10.37,2013-09-10 18:48:00,
2013-09-10 13:50:00,92.3,59.0,29.90,West,264,7.5,10.4,33,0.00,CLR,,0.00,WeatherDisplay:10.37,2013-09-10 18:50:00,
2013-09-10 13:51:00,92.3,59.0,29.90,SW,215,5.4,9.2,33,0.00,CLR,,0.00,WeatherDisplay:10.37,2013-09-10 18:51:00,
2013-09-10 13:53:00,92.4,59.1,29.90,SW,226,6.8,9.2,33,0.00,CLR,,0.00,WeatherDisplay:10.37,2013-09-10 18:53:00,
2013-09-10 13:54:00,92.4,59.1,29.90,SSW,202,8.4,13.8,33,0.00,CLR,,0.00,WeatherDisplay:10.37,2013-09-10 18:54:00,
2013-09-10 13:55:00,92.4,58.3,29.89,SSW,192,10.2,12.7,32,0.00,CLR,,0.00,WeatherDisplay:10.37,2013-09-10 18:55:00,
2013-09-10 13:56:00,92.6,57.6,29.89,SW,229,9.8,18.4,31,0.00,CLR,,0.00,WeatherDisplay:10.37,2013-09-10 18:56:00,
2013-09-10 13:59:00,92.6,58.4,29.89,SW,219,5.7,11.5,32,0.00,CLR,,0.00,WeatherDisplay:10.37,2013-09-10 18:59:00,
2013-09-10 14:00:00,92.8,58.6,29.89,WSW,248,8.7,15.0,32,0.00,CLR,,0.00,WeatherDisplay:10.37,2013-09-10 19:00:00,
2013-09-10 14:01:00,92.8,57.7,29.89,SW,222,10.4,13.8,31,0.00,CLR,,0.00,WeatherDisplay:10.37,2013-09-10 19:01:00,
2013-09-10 14:02:00,92.8,57.7,29.89,WSW,251,7.8,15.0,31,0.00,CLR,,0.00,WeatherDisplay:10.37,2013-09-10 19:02:00,
2013-09-10 14:04:00,92.8,57.7,29.89,SSW,199,7.1,11.5,31,0.00,CLR,,0.00,WeatherDisplay:10.37,2013-09-10 19:04:00,
2013-09-10 14:05:00,93.0,57.9,29.89,SSW,209,7.6,11.5,31,0.00,CLR,,0.00,WeatherDisplay:10.37,2013-09-10 19:05:00,
2013-09-10 14:06:00,92.9,57.8,29.89,West,278,8.2,11.5,31,0.00,CLR,,0.00,WeatherDisplay:10.37,2013-09-10 19:06:00,
2013-09-10 14:07:00,92.9,56.9,29.89,SSW,210,8.6,15.0,30,0.00,CLR,,0.00,WeatherDisplay:10.37,2013-09-10 19:07:00,
2013-09-10 14:09:00,93.2,58.1,29.89,WSW,237,6.9,10.4,31,0.00,CLR,,0.00,WeatherDisplay:10.37,2013-09-10 19:09:00,
2013-09-10 14:11:00,93.2,58.1,29.89,SSW,208,8.4,13.8,31,0.00,CLR,,0.00,WeatherDisplay:10.37,2013-09-10 19:11:00,
2013-09-10 14:12:00,93.2,58.1,29.89,SW,223,8.7,13.8,31,0.00,CLR,,0.00,WeatherDisplay:10.37,2013-09-10 19:12:00,
2013-09-10 14:14:00,93.5,57.4,29.89,South,179,8.5,13.8,30,0.00,CLR,,0.00,WeatherDisplay:10.37,2013-09-10 19:14:00,
2013-09-10 14:15:00,93.7,57.6,29.89,SW,217,7.7,11.5,30,0.00,CLR,,0.00,WeatherDisplay:10.37,2013-09-10 19:15:00,
2013-09-10 14:16:00,93.7,57.6,29.89,SW,234,7.7,11.5,30,0.00,CLR,,0.00,WeatherDisplay:10.37,2013-09-10 19:16:00,
2013-09-10 14:17:00,93.7,57.6,29.89,South,186,6.7,10.4,30,0.00,CLR,,0.00,WeatherDisplay:10.37,2013-09-10 19:17:00,
2013-09-10 14:19:00,94.0,57.8,29.89,WSW,253,7.1,10.4,30,0.00,CLR,,0.00,WeatherDisplay:10.37,2013-09-10 19:19:00,
2013-09-10 14:20:00,94.0,56.9,29.89,SW,217,7.7,10.4,29,0.00,CLR,,0.00,WeatherDisplay:10.37,2013-09-10 19:20:00,
2013-09-10 14:21:00,93.9,56.8,29.89,SW,220,8.2,10.4,29,0.00,CLR,,0.00,WeatherDisplay:10.37,2013-09-10 19:21:00,
2013-09-10 14:22:00,94.2,57.1,29.89,WSW,241,7.1,15.0,29,0.00,CLR,,0.00,WeatherDisplay:10.37,2013-09-10 19:22:00,
2013-09-10 14:25:00,94.2,57.1,29.89,WSW,240,8.3,16.1,29,0.00,CLR,,0.00,WeatherDisplay:10.37,2013-09-10 19:25:00,
2013-09-10 14:26:00,94.2,57.1,29.88,WSW,253,8.0,12.7,29,0.00,CLR,,0.00,WeatherDisplay:10.37,2013-09-10 19:26:00,
2013-09-10 14:27:00,94.3,58.1,29.88,SW,215,6.0,10.4,30,0.00,CLR,,0.00,WeatherDisplay:10.37,2013-09-10 19:27:00,
2013-09-10 14:28:00,94.3,58.1,29.88,SSW,210,7.0,9.2,30,0.00,CLR,,0.00,WeatherDisplay:10.37,2013-09-10 19:28:00,
2013-09-10 14:30:00,94.5,58.3,29.88,SW,236,8.3,15.0,30,0.00,CLR,,0.00,WeatherDisplay:10.37,2013-09-10 19:30:00,
2013-09-10 14:31:00,94.8,56.6,29.88,WSW,240,9.2,12.7,28,0.00,CLR,,0.00,WeatherDisplay:10.37,2013-09-10 19:31:00,
2013-09-10 14:32:00,94.8,56.6,29.89,NW,304,9.2,18.4,28,0.00,CLR,,0.00,WeatherDisplay:10.37,2013-09-10 19:32:00,
2013-09-10 14:34:00,94.8,56.6,29.88,SSW,209,6.4,10.4,28,0.00,CLR,,0.00,WeatherDisplay:10.37,2013-09-10 19:34:00,
2013-09-10 14:35:00,95.0,56.8,29.88,West,272,6.2,9.2,28,0.00,CLR,,0.00,WeatherDisplay:10.37,2013-09-10 19:35:00,
2013-09-10 14:37:00,95.0,56.8,29.88,WSW,239,10.1,18.4,28,0.00,CLR,,0.00,WeatherDisplay:10.37,2013-09-10 19:37:00,
2013-09-10 14:40:00,95.0,56.8,29.89,WSW,241,7.9,13.8,28,0.00,CLR,,0.00,WeatherDisplay:10.37,2013-09-10 19:40:00,
2013-09-10 14:42:00,94.9,56.7,29.89,West,263,10.5,17.3,28,0.00,CLR,,0.00,WeatherDisplay:10.37,2013-09-10 19:42:00,
2013-09-10 14:45:00,95.0,56.8,29.89,WSW,250,8.2,13.8,28,0.00,CLR,,0.00,WeatherDisplay:10.37,2013-09-10 19:45:00,
2013-09-10 14:47:00,95.1,56.9,29.89,SW,217,9.0,15.0,28,0.00,CLR,,0.00,WeatherDisplay:10.37,2013-09-10 19:47:00,
2013-09-10 14:50:00,94.9,55.7,29.88,SW,224,8.7,12.7,27,0.00,CLR,,0.00,WeatherDisplay:10.37,2013-09-10 19:50:00,
2013-09-10 14:51:00,95.0,56.8,29.88,WSW,243,7.8,12.7,28,0.00,CLR,,0.00,WeatherDisplay:10.37,2013-09-10 19:51:00,
2013-09-10 14:52:00,95.0,55.8,29.89,WSW,248,11.1,17.3,27,0.00,CLR,,0.00,WeatherDisplay:10.37,2013-09-10 19:52:00,
2013-09-10 14:54:00,95.0,55.8,29.88,SW,219,9.8,15.0,27,0.00,CLR,,0.00,WeatherDisplay:10.37,2013-09-10 19:54:00,
2013-09-10 14:55:00,94.9,54.7,29.89,SW,230,10.1,15.0,26,0.00,CLR,,0.00,WeatherDisplay:10.37,2013-09-10 19:55:00,
2013-09-10 14:56:00,94.9,54.7,29.89,SSW,202,9.8,19.6,26,0.00,CLR,,0.00,WeatherDisplay:10.37,2013-09-10 19:56:00,
2013-09-10 14:57:00,95.0,54.7,29.89,West,265,9.4,13.8,26,0.00,CLR,,0.00,WeatherDisplay:10.37,2013-09-10 19:57:00,
2013-09-10 15:00:00,94.9,55.7,29.89,SW,229,9.0,15.0,27,0.00,CLR,,0.00,WeatherDisplay:10.37,2013-09-10 20:00:00,
2013-09-10 15:01:00,94.8,54.6,29.89,West,275,8.8,20.7,26,0.00,CLR,,0.00,WeatherDisplay:10.37,2013-09-10 20:01:00,
2013-09-10 15:02:00,94.5,54.3,29.89,SW,219,9.6,20.7,26,0.00,CLR,,0.00,WeatherDisplay:10.37,2013-09-10 20:02:00,
2013-09-10 15:03:00,94.7,55.5,29.89,SW,236,7.7,16.1,27,0.00,CLR,,0.00,WeatherDisplay:10.37,2013-09-10 20:03:00,
2013-09-10 15:06:00,94.4,56.3,29.89,SW,223,6.8,10.4,28,0.00,CLR,,0.00,WeatherDisplay:10.37,2013-09-10 20:06:00,
2013-09-10 15:07:00,94.8,56.6,29.89,SW,226,11.4,20.7,28,0.00,CLR,,0.00,WeatherDisplay:10.37,2013-09-10 20:07:00,
2013-09-10 15:08:00,94.9,55.7,29.89,WSW,247,10.2,20.7,27,0.00,CLR,,0.00,WeatherDisplay:10.37,2013-09-10 20:08:00,
2013-09-10 15:11:00,94.8,55.6,29.89,SW,232,9.9,17.3,27,0.00,CLR,,0.00,WeatherDisplay:10.37,2013-09-10 20:11:00,
2013-09-10 15:12:00,94.8,55.6,29.89,West,275,9.5,15.0,27,0.00,CLR,,0.00,WeatherDisplay:10.37,2013-09-10 20:12:00,
2013-09-10 15:13:00,94.7,55.5,29.89,SSW,205,9.7,17.3,27,0.00,CLR,,0.00,WeatherDisplay:10.37,2013-09-10 20:13:00,
2013-09-10 15:16:00,95.0,56.8,29.89,SW,215,7.4,11.9,28,0.00,CLR,,0.00,WeatherDisplay:10.37,2013-09-10 20:16:00,
2013-09-10 15:17:00,95.1,56.9,29.89,WSW,246,8.1,12.7,28,0.00,CLR,,0.00,WeatherDisplay:10.37,2013-09-10 20:17:00,
2013-09-10 15:18:00,94.9,56.7,29.89,SW,224,7.3,10.4,28,0.00,CLR,,0.00,WeatherDisplay:10.37,2013-09-10 20:18:00,
2013-09-10 15:21:00,95.3,56.0,29.89,SSW,212,6.9,12.4,27,0.00,CLR,,0.00,WeatherDisplay:10.37,2013-09-10 20:21:00,
2013-09-10 15:23:00,95.2,57.0,29.89,WSW,256,7.8,11.5,28,0.00,CLR,,0.00,WeatherDisplay:10.37,2013-09-10 20:23:00,
2013-09-10 15:24:00,95.3,57.0,29.89,SW,229,6.2,9.2,28,0.00,CLR,,0.00,WeatherDisplay:10.37,2013-09-10 20:24:00,
2013-09-10 15:26:00,95.4,56.1,29.89,WSW,240,12.3,17.3,27,0.00,CLR,,0.00,WeatherDisplay:10.37,2013-09-10 20:26:00,
2013-09-10 15:28:00,95.7,57.4,29.89,SW,215,8.5,13.8,28,0.00,CLR,,0.00,WeatherDisplay:10.37,2013-09-10 20:28:00,
2013-09-10 15:29:00,95.2,57.0,29.89,WSW,256,7.1,11.6,28,0.00,CLR,,0.00,WeatherDisplay:10.37,2013-09-10 20:29:00,
2013-09-10 15:32:00,95.2,57.0,29.89,SW,229,8.9,13.8,28,0.00,CLR,,0.00,WeatherDisplay:10.37,2013-09-10 20:32:00,
2013-09-10 15:33:00,95.4,57.1,29.88,SSW,198,9.2,13.8,28,0.00,CLR,,0.00,WeatherDisplay:10.37,2013-09-10 20:33:00,
2013-09-10 15:34:00,95.5,57.2,29.88,SW,220,7.1,15.0,28,0.00,CLR,,0.00,WeatherDisplay:10.37,2013-09-10 20:34:00,
2013-09-10 15:37:00,95.1,55.9,29.88,WSW,244,11.8,24.2,27,0.00,CLR,,0.00,WeatherDisplay:10.37,2013-09-10 20:37:00,
2013-09-10 15:38:00,95.2,55.9,29.88,SW,236,8.7,17.3,27,0.00,CLR,,0.00,WeatherDisplay:10.37,2013-09-10 20:38:00,
2013-09-10 15:39:00,95.2,55.9,29.89,WSW,248,7.3,16.1,27,0.00,CLR,,0.00,WeatherDisplay:10.37,2013-09-10 20:39:00,
2013-09-10 15:42:00,95.0,54.7,29.89,West,271,11.5,17.3,26,0.00,CLR,,0.00,WeatherDisplay:10.37,2013-09-10 20:42:00,
2013-09-10 15:43:00,95.2,55.9,29.89,SW,219,8.2,18.4,27,0.00,CLR,,0.00,WeatherDisplay:10.37,2013-09-10 20:43:00,
2013-09-10 15:44:00,95.3,56.0,29.89,WSW,251,7.8,13.8,27,0.00,CLR,,0.00,WeatherDisplay:10.37,2013-09-10 20:44:00,
2013-09-10 15:47:00,95.1,54.8,29.89,SW,217,6.9,17.3,26,0.00,CLR,,0.00,WeatherDisplay:10.37,2013-09-10 20:47:00,
2013-09-10 15:48:00,95.1,54.8,29.89,WSW,251,7.5,10.9,26,0.00,CLR,,0.00,WeatherDisplay:10.37,2013-09-10 20:48:00,
2013-09-10 15:49:00,95.2,55.9,29.89,SW,219,9.2,13.8,27,0.00,CLR,,0.00,WeatherDisplay:10.37,2013-09-10 20:49:00,
2013-09-10 15:52:00,95.0,54.7,29.89,WSW,251,10.4,15.0,26,0.00,CLR,,0.00,WeatherDisplay:10.37,2013-09-10 20:52:00,
2013-09-10 15:53:00,95.1,54.8,29.89,West,263,9.9,13.8,26,0.00,CLR,,0.00,WeatherDisplay:10.37,2013-09-10 20:53:00,
2013-09-10 15:55:00,95.1,55.9,29.89,SSE,165,9.8,16.1,27,0.00,CLR,,0.00,WeatherDisplay:10.37,2013-09-10 20:55:00,
2013-09-10 15:58:00,94.8,54.6,29.89,SW,222,12.0,20.7,26,0.00,CLR,,0.00,WeatherDisplay:10.37,2013-09-10 20:58:00,
2013-09-10 16:00:00,94.8,55.6,29.89,SW,234,6.6,10.4,27,0.00,CLR,,0.00,WeatherDisplay:10.37,2013-09-10 21:00:00,
2013-09-10 16:03:00,94.7,54.5,29.89,WSW,253,11.8,21.9,26,0.00,CLR,,0.00,WeatherDisplay:10.37,2013-09-10 21:03:00,
2013-09-10 16:04:00,94.8,54.6,29.89,WSW,240,8.8,14.4,26,0.00,CLR,,0.00,WeatherDisplay:10.37,2013-09-10 21:04:00,
2013-09-10 16:05:00,94.7,54.5,29.89,SW,220,10.5,18.4,26,0.00,CLR,,0.00,WeatherDisplay:10.37,2013-09-10 21:05:00,
2013-09-10 16:06:00,94.7,54.5,29.89,WSW,248,9.9,18.4,26,0.00,CLR,,0.00,WeatherDisplay:10.37,2013-09-10 21:06:00,
2013-09-10 16:08:00,94.7,54.5,29.89,SW,227,11.8,16.1,26,0.00,CLR,,0.00,WeatherDisplay:10.37,2013-09-10 21:08:00,
2013-09-10 16:10:00,94.4,54.2,29.89,WSW,241,8.1,15.0,26,0.00,CLR,,0.00,WeatherDisplay:10.37,2013-09-10 21:10:00,
2013-09-10 16:11:00,94.5,54.3,29.89,NW,318,7.7,11.5,26,0.00,CLR,,0.00,WeatherDisplay:10.37,2013-09-10 21:11:00,
2013-09-10 16:13:00,94.4,54.2,29.89,WSW,256,7.3,10.4,26,0.00,CLR,,0.00,WeatherDisplay:10.37,2013-09-10 21:13:00,
2013-09-10 16:15:00,94.5,54.3,29.89,SSW,213,7.8,13.8,26,0.00,CLR,,0.00,WeatherDisplay:10.37,2013-09-10 21:15:00,
2013-09-10 16:16:00,94.5,55.4,29.89,WSW,258,7.5,11.5,27,0.00,CLR,,0.00,WeatherDisplay:10.37,2013-09-10 21:16:00,
2013-09-10 16:17:00,94.7,54.5,29.88,WSW,246,8.6,17.3,26,0.00,CLR,,0.00,WeatherDisplay:10.37,2013-09-10 21:17:00,
2013-09-10 16:18:00,94.7,54.5,29.89,SW,229,7.7,13.8,26,0.00,CLR,,0.00,WeatherDisplay:10.37,2013-09-10 21:18:00,
2013-09-10 16:20:00,94.9,54.7,29.89,SW,227,8.9,15.0,26,0.00,CLR,,0.00,WeatherDisplay:10.37,2013-09-10 21:20:00,
2013-09-10 16:21:00,94.7,54.5,29.89,SW,230,8.4,15.0,26,0.00,CLR,,0.00,WeatherDisplay:10.37,2013-09-10 21:21:00,
2013-09-10 16:23:00,94.9,55.7,29.89,SSW,209,6.8,13.8,27,0.00,CLR,,0.00,WeatherDisplay:10.37,2013-09-10 21:23:00,
2013-09-10 16:24:00,94.7,55.5,29.89,South,174,6.6,10.4,27,0.00,CLR,,0.00,WeatherDisplay:10.37,2013-09-10 21:24:00,
2013-09-10 16:26:00,95.0,55.8,29.89,SW,222,5.5,13.3,27,0.00,CLR,,0.00,WeatherDisplay:10.37,2013-09-10 21:26:00,
2013-09-10 16:27:00,94.9,54.7,29.89,WSW,248,10.7,13.8,26,0.00,CLR,,0.00,WeatherDisplay:10.37,2013-09-10 21:27:00,
2013-09-10 16:28:00,94.8,54.6,29.89,WSW,244,7.8,18.4,26,0.00,CLR,,0.00,WeatherDisplay:10.37,2013-09-10 21:28:00,
2013-09-10 16:30:00,94.8,55.6,29.89,West,267,5.9,10.4,27,0.00,CLR,,0.00,WeatherDisplay:10.37,2013-09-10 21:30:00,
2013-09-10 16:31:00,94.8,54.6,29.89,SW,223,8.0,12.7,26,0.00,CLR,,0.00,WeatherDisplay:10.37,2013-09-10 21:31:00,
2013-09-10 16:32:00,94.8,54.6,29.89,WSW,253,9.4,12.7,26,0.00,CLR,,0.00,WeatherDisplay:10.37,2013-09-10 21:32:00,
2013-09-10 16:34:00,94.8,54.6,29.89,South,169,7.7,10.9,26,0.00,CLR,,0.00,WeatherDisplay:10.37,2013-09-10 21:34:00,
2013-09-10 16:35:00,94.8,54.6,29.89,WSW,247,6.1,15.0,26,0.00,CLR,,0.00,WeatherDisplay:10.37,2013-09-10 21:35:00,
2013-09-10 16:37:00,94.7,55.5,29.89,WSW,258,6.9,9.7,27,0.00,CLR,,0.00,WeatherDisplay:10.37,2013-09-10 21:37:00,
2013-09-10 16:38:00,94.8,55.6,29.88,SSW,195,8.8,13.2,27,0.00,CLR,,0.00,WeatherDisplay:10.37,2013-09-10 21:38:00,
2013-09-10 16:39:00,94.7,55.5,29.89,WNW,291,8.0,15.0,27,0.00,CLR,,0.00,WeatherDisplay:10.37,2013-09-10 21:39:00,
2013-09-10 16:40:00,94.7,54.5,29.89,SW,233,10.6,16.1,26,0.00,CLR,,0.00,WeatherDisplay:10.37,2013-09-10 21:40:00,
2013-09-10 16:42:00,94.4,54.2,29.89,SW,224,8.5,15.0,26,0.00,CLR,,0.00,WeatherDisplay:10.37,2013-09-10 21:42:00,
2013-09-10 16:43:00,94.4,54.2,29.89,South,191,8.7,14.7,26,0.00,CLR,,0.00,WeatherDisplay:10.37,2013-09-10 21:43:00,
2013-09-10 16:44:00,94.3,54.1,29.89,SW,232,10.9,19.6,26,0.00,CLR,,0.00,WeatherDisplay:10.37,2013-09-10 21:44:00,
2013-09-10 16:46:00,94.1,55.0,29.89,NNW,332,6.4,10.4,27,0.00,CLR,,0.00,WeatherDisplay:10.37,2013-09-10 21:46:00,
2013-09-10 16:47:00,94.2,55.1,29.89,SW,227,9.2,15.0,27,0.00,CLR,,0.00,WeatherDisplay:10.37,2013-09-10 21:47:00,
2013-09-10 16:48:00,94.1,55.0,29.89,WSW,237,5.7,10.4,27,0.00,CLR,,0.00,WeatherDisplay:10.37,2013-09-10 21:48:00,
2013-09-10 16:49:00,93.9,54.8,29.89,WSW,239,5.2,10.4,27,0.00,CLR,,0.00,WeatherDisplay:10.37,2013-09-10 21:49:00,
2013-09-10 16:51:00,94.1,55.0,29.88,West,278,6.7,10.4,27,0.00,CLR,,0.00,WeatherDisplay:10.37,2013-09-10 21:51:00,
2013-09-10 16:52:00,94.0,54.9,29.88,WSW,257,8.0,11.5,27,0.00,CLR,,0.00,WeatherDisplay:10.37,2013-09-10 21:52:00,
2013-09-10 16:54:00,93.8,54.8,29.88,SW,226,7.2,11.8,27,0.00,CLR,,0.00,WeatherDisplay:10.37,2013-09-10 21:54:00,
2013-09-10 16:56:00,93.7,54.7,29.88,SW,234,9.3,10.6,27,0.00,CLR,,0.00,WeatherDisplay:10.37,2013-09-10 21:56:00,
2013-09-10 16:57:00,93.8,53.7,29.88,SW,219,6.8,13.8,26,0.00,CLR,,0.00,WeatherDisplay:10.37,2013-09-10 21:57:00,
2013-09-10 16:59:00,93.4,54.4,29.89,WSW,240,6.9,15.0,27,0.00,CLR,,0.00,WeatherDisplay:10.37,2013-09-10 21:59:00,
2013-09-10 17:02:00,93.3,55.3,29.89,WSW,253,6.7,13.8,28,0.00,CLR,,0.00,WeatherDisplay:10.37,2013-09-10 22:02:00,
2013-09-10 17:04:00,93.2,54.3,29.89,NW,305,8.9,15.0,27,0.00,CLR,,0.00,WeatherDisplay:10.37,2013-09-10 22:04:00,
2013-09-10 17:05:00,93.0,54.1,29.89,WSW,247,7.4,15.0,27,0.00,CLR,,0.00,WeatherDisplay:10.37,2013-09-10 22:05:00,
2013-09-10 17:07:00,93.0,55.1,29.89,SW,234,5.9,18.4,28,0.00,CLR,,0.00,WeatherDisplay:10.37,2013-09-10 22:07:00,
2013-09-10 17:08:00,92.9,55.0,29.89,West,260,7.4,13.8,28,0.00,CLR,,0.00,WeatherDisplay:10.37,2013-09-10 22:08:00,
2013-09-10 17:09:00,93.0,55.1,29.89,WSW,246,8.1,12.7,28,0.00,CLR,,0.00,WeatherDisplay:10.37,2013-09-10 22:09:00,
2013-09-10 17:10:00,92.9,55.0,29.89,WNW,302,7.1,12.7,28,0.00,CLR,,0.00,WeatherDisplay:10.37,2013-09-10 22:10:00,
2013-09-10 17:12:00,92.8,54.9,29.89,SSW,210,8.6,12.7,28,0.00,CLR,,0.00,WeatherDisplay:10.37,2013-09-10 22:12:00,
2013-09-10 17:13:00,92.7,54.8,29.89,SW,219,9.9,15.9,28,0.00,CLR,,0.00,WeatherDisplay:10.37,2013-09-10 22:13:00,
2013-09-10 17:14:00,92.6,54.7,29.89,SSW,213,6.9,18.4,28,0.00,CLR,,0.00,WeatherDisplay:10.37,2013-09-10 22:14:00,
2013-09-10 17:15:00,92.5,54.7,29.89,WSW,239,6.5,12.7,28,0.00,CLR,,0.00,WeatherDisplay:10.37,2013-09-10 22:15:00,
2013-09-10 17:16:00,92.6,54.7,29.89,West,275,7.6,11.5,28,0.00,CLR,,0.00,WeatherDisplay:10.37,2013-09-10 22:16:00,
2013-09-10 17:17:00,92.4,54.6,29.89,SW,223,7.9,19.6,28,0.00,CLR,,0.00,WeatherDisplay:10.37,2013-09-10 22:17:00,
2013-09-10 17:18:00,92.4,55.5,29.89,WSW,243,5.7,12.7,29,0.00,CLR,,0.00,WeatherDisplay:10.37,2013-09-10 22:18:00,
2013-09-10 17:19:00,92.3,56.4,29.89,WSW,246,5.3,6.9,30,0.00,CLR,,0.00,WeatherDisplay:10.37,2013-09-10 22:19:00,
2013-09-10 17:20:00,92.2,56.3,29.89,SW,226,4.0,8.1,30,0.00,CLR,,0.00,WeatherDisplay:10.37,2013-09-10 22:20:00,
2013-09-10 17:21:00,92.3,56.4,29.89,SW,229,4.1,7.0,30,0.00,CLR,,0.00,WeatherDisplay:10.37,2013-09-10 22:21:00,
2013-09-10 17:22:00,92.2,56.3,29.88,WSW,248,4.3,11.5,30,0.00,CLR,,0.00,WeatherDisplay:10.37,2013-09-10 22:22:00,
2013-09-10 17:23:00,92.2,56.3,29.88,WSW,258,5.9,6.9,30,0.00,CLR,,0.00,WeatherDisplay:10.37,2013-09-10 22:23:00,
2013-09-10 17:25:00,92.1,56.2,29.88,WSW,251,4.8,6.8,30,0.00,CLR,,0.00,WeatherDisplay:10.37,2013-09-10 22:25:00,
2013-09-10 17:26:00,92.1,56.2,29.88,WSW,247,5.2,8.1,30,0.00,CLR,,0.00,WeatherDisplay:10.37,2013-09-10 22:26:00,
2013-09-10 17:28:00,92.0,56.1,29.89,WSW,239,7.1,10.4,30,0.00,CLR,,0.00,WeatherDisplay:10.37,2013-09-10 22:28:00,
2013-09-10 17:30:00,91.8,56.0,29.89,West,264,7.3,10.4,30,0.00,CLR,,0.00,WeatherDisplay:10.37,2013-09-10 22:30:00,
2013-09-10 17:32:00,91.7,56.8,29.89,WSW,246,6.4,8.1,31,0.00,CLR,,0.00,WeatherDisplay:10.37,2013-09-10 22:32:00,
2013-09-10 17:33:00,91.7,56.8,29.89,SW,233,6.8,11.6,31,0.00,CLR,,0.00,WeatherDisplay:10.37,2013-09-10 22:33:00,
2013-09-10 17:34:00,91.5,55.7,29.89,WNW,288,8.0,12.7,30,0.00,CLR,,0.00,WeatherDisplay:10.37,2013-09-10 22:34:00,
2013-09-10 17:35:00,91.4,56.5,29.89,WSW,258,5.4,12.7,31,0.00,CLR,,0.00,WeatherDisplay:10.37,2013-09-10 22:35:00,
2013-09-10 17:37:00,91.2,56.3,29.89,SW,236,5.4,9.4,31,0.00,CLR,,0.00,WeatherDisplay:10.37,2013-09-10 22:37:00,
2013-09-10 17:38:00,91.1,56.3,29.89,WSW,241,7.0,9.8,31,0.00,CLR,,0.00,WeatherDisplay:10.37,2013-09-10 22:38:00,
2013-09-10 17:39:00,91.1,56.3,29.89,West,260,6.9,10.4,31,0.00,CLR,,0.00,WeatherDisplay:10.37,2013-09-10 22:39:00,
2013-09-10 17:40:00,91.1,56.3,29.89,WSW,247,6.2,10.4,31,0.00,CLR,,0.00,WeatherDisplay:10.37,2013-09-10 22:40:00,
2013-09-10 17:41:00,91.0,57.0,29.89,SSW,208,4.9,8.0,32,0.00,CLR,,0.00,WeatherDisplay:10.37,2013-09-10 22:41:00,
2013-09-10 17:43:00,90.9,56.1,29.89,WSW,240,5.9,12.7,31,0.00,CLR,,0.00,WeatherDisplay:10.37,2013-09-10 22:43:00,
2013-09-10 17:45:00,90.7,55.9,29.89,WSW,247,4.0,11.5,31,0.00,CLR,,0.00,WeatherDisplay:10.37,2013-09-10 22:45:00,
2013-09-10 17:46:00,90.6,56.7,29.89,SSW,213,4.2,6.8,32,0.00,CLR,,0.00,WeatherDisplay:10.37,2013-09-10 22:46:00,
2013-09-10 17:48:00,90.4,56.5,29.89,West,260,7.7,13.8,32,0.00,CLR,,0.00,WeatherDisplay:10.37,2013-09-10 22:48:00,
2013-09-10 17:49:00,90.3,56.4,29.89,WSW,254,4.7,6.9,32,0.00,CLR,,0.00,WeatherDisplay:10.37,2013-09-10 22:49:00,
2013-09-10 17:50:00,90.4,56.5,29.89,SW,229,7.0,10.4,32,0.00,CLR,,0.00,WeatherDisplay:10.37,2013-09-10 22:50:00,
2013-09-10 17:51:00,90.3,56.4,29.89,SW,233,5.9,10.4,32,0.00,CLR,,0.00,WeatherDisplay:10.37,2013-09-10 22:51:00,
2013-09-10 17:53:00,90.3,57.3,29.89,SW,222,5.0,9.2,33,0.00,CLR,,0.00,WeatherDisplay:10.37,2013-09-10 22:53:00,
2013-09-10 17:54:00,90.2,57.2,29.89,WSW,257,5.0,9.3,33,0.00,CLR,,0.00,WeatherDisplay:10.37,2013-09-10 22:54:00,
2013-09-10 17:55:00,90.2,57.2,29.89,West,274,6.5,9.2,33,0.00,CLR,,0.00,WeatherDisplay:10.37,2013-09-10 22:55:00,
2013-09-10 17:56:00,90.1,57.1,29.89,WSW,248,5.3,11.5,33,0.00,CLR,,0.00,WeatherDisplay:10.37,2013-09-10 22:56:00,
2013-09-10 17:59:00,89.9,56.9,29.89,SSW,202,4.6,6.9,33,0.00,CLR,,0.00,WeatherDisplay:10.37,2013-09-10 22:59:00,
2013-09-10 18:01:00,89.8,57.7,29.89,SW,234,4.3,8.1,34,0.00,CLR,,0.00,WeatherDisplay:10.37,2013-09-10 23:01:00,
2013-09-10 18:04:00,89.5,57.4,29.88,SW,226,5.4,8.1,34,0.00,CLR,,0.00,WeatherDisplay:10.37,2013-09-10 23:04:00,
2013-09-10 18:06:00,89.4,57.3,29.88,WSW,253,5.5,8.1,34,0.00,CLR,,0.00,WeatherDisplay:10.37,2013-09-10 23:06:00,
2013-09-10 18:07:00,89.2,57.2,29.88,West,264,3.3,9.2,34,0.00,CLR,,0.00,WeatherDisplay:10.37,2013-09-10 23:07:00,
2013-09-10 18:09:00,89.3,58.1,29.89,WSW,250,3.0,3.5,35,0.00,CLR,,0.00,WeatherDisplay:10.37,2013-09-10 23:09:00,
2013-09-10 18:11:00,89.1,57.9,29.89,WSW,247,4.3,5.8,35,0.00,CLR,,0.00,WeatherDisplay:10.37,2013-09-10 23:11:00,
2013-09-10 18:12:00,89.1,57.9,29.89,SW,229,2.9,5.8,35,0.00,CLR,,0.00,WeatherDisplay:10.37,2013-09-10 23:12:00,
2013-09-10 18:13:00,89.0,57.8,29.88,WSW,254,3.1,5.2,35,0.00,CLR,,0.00,WeatherDisplay:10.37,2013-09-10 23:13:00,
2013-09-10 18:14:00,89.0,58.6,29.89,West,277,3.0,4.6,36,0.00,CLR,,0.00,WeatherDisplay:10.37,2013-09-10 23:14:00,
2013-09-10 18:15:00,88.9,58.5,29.89,WNW,285,3.1,4.6,36,0.00,CLR,,0.00,WeatherDisplay:10.37,2013-09-10 23:15:00,
2013-09-10 18:16:00,88.9,58.5,29.89,SW,229,3.3,5.8,36,0.00,CLR,,0.00,WeatherDisplay:10.37,2013-09-10 23:16:00,
2013-09-10 18:17:00,88.8,58.4,29.89,WSW,256,2.9,4.6,36,0.00,CLR,,0.00,WeatherDisplay:10.37,2013-09-10 23:17:00,
2013-09-10 18:19:00,88.6,58.2,29.89,SW,226,3.0,5.8,36,0.00,CLR,,0.00,WeatherDisplay:10.37,2013-09-10 23:19:00,
2013-09-10 18:21:00,88.6,58.2,29.89,WSW,239,4.4,6.9,36,0.00,CLR,,0.00,WeatherDisplay:10.37,2013-09-10 23:21:00,
2013-09-10 18:22:00,88.5,58.1,29.89,SW,227,3.5,8.1,36,0.00,CLR,,0.00,WeatherDisplay:10.37,2013-09-10 23:22:00,
2013-09-10 18:24:00,88.3,58.7,29.89,West,271,4.6,6.9,37,0.00,CLR,,0.00,WeatherDisplay:10.37,2013-09-10 23:24:00,
2013-09-10 18:26:00,88.2,58.6,29.89,SW,233,3.3,8.2,37,0.00,CLR,,0.00,WeatherDisplay:10.37,2013-09-10 23:26:00,
2013-09-10 18:27:00,88.1,58.6,29.89,WSW,256,4.7,8.1,37,0.00,CLR,,0.00,WeatherDisplay:10.37,2013-09-10 23:27:00,
2013-09-10 18:30:00,88.0,58.5,29.89,SW,232,3.1,5.8,37,0.00,CLR,,0.00,WeatherDisplay:10.37,2013-09-10 23:30:00,
2013-09-10 18:31:00,87.8,58.3,29.89,WSW,240,3.1,5.8,37,0.00,CLR,,0.00,WeatherDisplay:10.37,2013-09-10 23:31:00,
2013-09-10 18:32:00,87.9,58.4,29.89,SW,220,3.2,6.9,37,0.00,CLR,,0.00,WeatherDisplay:10.37,2013-09-10 23:32:00,
2013-09-10 18:34:00,87.7,58.2,29.88,West,263,4.0,8.1,37,0.00,CLR,,0.00,WeatherDisplay:10.37,2013-09-10 23:34:00,
2013-09-10 18:35:00,87.6,58.1,29.89,West,263,4.1,4.6,37,0.00,CLR,,0.00,WeatherDisplay:10.37,2013-09-10 23:35:00,
2013-09-10 18:36:00,87.5,58.0,29.88,SW,227,4.4,5.8,37,0.00,CLR,,0.00,WeatherDisplay:10.37,2013-09-10 23:36:00,
2013-09-10 18:37:00,87.5,58.0,29.88,WSW,256,3.9,5.8,37,0.00,CLR,,0.00,WeatherDisplay:10.37,2013-09-10 23:37:00,
2013-09-10 18:39:00,87.5,58.0,29.88,West,261,2.5,5.5,37,0.00,CLR,,0.00,WeatherDisplay:10.37,2013-09-10 23:39:00,
2013-09-10 18:40:00,87.3,57.8,29.88,SW,226,4.2,8.1,37,0.00,CLR,,0.00,WeatherDisplay:10.37,2013-09-10 23:40:00,
2013-09-10 18:42:00,87.2,58.5,29.89,SW,230,3.4,4.9,38,0.00,CLR,,0.00,WeatherDisplay:10.37,2013-09-10 23:42:00,
2013-09-10 18:45:00,87.0,58.3,29.89,SSW,212,3.8,6.9,38,0.00,CLR,,0.00,WeatherDisplay:10.37,2013-09-10 23:45:00,
2013-09-10 18:47:00,86.8,58.1,29.89,SW,229,2.9,4.6,38,0.00,CLR,,0.00,WeatherDisplay:10.37,2013-09-10 23:47:00,
2013-09-10 18:50:00,86.7,58.1,29.89,WSW,241,4.0,6.9,38,0.00,CLR,,0.00,WeatherDisplay:10.37,2013-09-10 23:50:00,
2013-09-10 18:52:00,86.5,58.6,29.89,SSW,213,3.2,5.8,39,0.00,CLR,,0.00,WeatherDisplay:10.37,2013-09-10 23:52:00,
2013-09-10 18:53:00,86.4,58.5,29.89,WSW,239,2.9,5.8,39,0.00,CLR,,0.00,WeatherDisplay:10.37,2013-09-10 23:53:00,
2013-09-10 18:56:00,86.1,58.2,29.88,WSW,256,4.7,8.1,39,0.00,CLR,,0.00,WeatherDisplay:10.37,2013-09-10 23:56:00,
2013-09-10 18:57:00,86.0,58.2,29.88,SW,233,4.1,4.6,39,0.00,CLR,,0.00,WeatherDisplay:10.37,2013-09-10 23:57:00,
2013-09-10 18:58:00,85.9,58.1,29.88,WSW,248,3.9,8.1,39,0.00,CLR,,0.00,WeatherDisplay:10.37,2013-09-10 23:58:00,
2013-09-10 18:59:00,85.9,58.1,29.88,SW,219,5.3,8.1,39,0.00,CLR,,0.00,WeatherDisplay:10.37,2013-09-10 23:59:00,
2013-09-10 19:01:00,85.7,58.6,29.89,SW,232,3.7,8.1,40,0.00,CLR,,0.00,WeatherDisplay:10.37,2013-09-11 00:01:00,
2013-09-10 19:02:00,85.7,58.6,29.88,SW,230,4.6,8.1,40,0.00,CLR,,0.00,WeatherDisplay:10.37,2013-09-11 00:02:00,
2013-09-10 19:03:00,85.6,58.5,29.88,SW,216,3.5,8.1,40,0.00,CLR,,0.00,WeatherDisplay:10.37,2013-09-11 00:03:00,
2013-09-10 19:04:00,85.5,58.4,29.88,SW,220,3.7,7.1,40,0.00,CLR,,0.00,WeatherDisplay:10.37,2013-09-11 00:04:00,
2013-09-10 19:06:00,85.5,58.4,29.89,SW,219,3.0,4.6,40,0.00,CLR,,0.00,WeatherDisplay:10.37,2013-09-11 00:06:00,
2013-09-10 19:07:00,85.4,58.3,29.89,WSW,244,2.5,3.5,40,0.00,CLR,,0.00,WeatherDisplay:10.37,2013-09-11 00:07:00,
2013-09-10 19:08:00,85.3,58.2,29.89,SW,226,2.2,3.5,40,0.00,CLR,,0.00,WeatherDisplay:10.37,2013-09-11 00:08:00,
2013-09-10 19:09:00,85.2,58.2,29.89,West,264,2.1,3.5,40,0.00,CLR,,0.00,WeatherDisplay:10.37,2013-09-11 00:09:00,
2013-09-10 19:11:00,85.0,58.7,29.89,SW,226,3.0,4.6,41,0.00,CLR,,0.00,WeatherDisplay:10.37,2013-09-11 00:11:00,
2013-09-10 19:12:00,85.0,58.7,29.89,SW,215,3.1,4.6,41,0.00,CLR,,0.00,WeatherDisplay:10.37,2013-09-11 00:12:00,
2013-09-10 19:13:00,84.9,58.6,29.89,SW,222,3.3,4.6,41,0.00,CLR,,0.00,WeatherDisplay:10.37,2013-09-11 00:13:00,
2013-09-10 19:14:00,84.8,58.5,29.89,SSW,213,2.4,4.6,41,0.00,CLR,,0.00,WeatherDisplay:10.37,2013-09-11 00:14:00,
2013-09-10 19:16:00,84.7,58.4,29.89,SW,229,2.8,3.5,41,0.00,CLR,,0.00,WeatherDisplay:10.37,2013-09-11 00:16:00,
2013-09-10 19:18:00,84.6,58.3,29.89,SSW,212,2.5,4.6,41,0.00,CLR,,0.00,WeatherDisplay:10.37,2013-09-11 00:18:00,
2013-09-10 19:19:00,84.4,58.8,29.89,SW,220,2.2,4.6,42,0.00,CLR,,0.00,WeatherDisplay:10.37,2013-09-11 00:19:00,
2013-09-10 19:21:00,84.3,58.7,29.89,SW,222,2.7,4.6,42,0.00,CLR,,0.00,WeatherDisplay:10.37,2013-09-11 00:21:00,
2013-09-10 19:22:00,84.3,58.7,29.89,SW,229,2.4,4.6,42,0.00,CLR,,0.00,WeatherDisplay:10.37,2013-09-11 00:22:00,
2013-09-10 19:23:00,84.2,58.6,29.89,SSW,212,2.5,3.5,42,0.00,CLR,,0.00,WeatherDisplay:10.37,2013-09-11 00:23:00,
2013-09-10 19:25:00,83.9,58.3,29.89,SW,220,3.0,4.6,42,0.00,CLR,,0.00,WeatherDisplay:10.37,2013-09-11 00:25:00,
2013-09-10 19:26:00,83.9,58.3,29.89,SW,224,4.0,4.6,42,0.00,CLR,,0.00,WeatherDisplay:10.37,2013-09-11 00:26:00,
2013-09-10 19:27:00,83.9,58.3,29.89,SSW,210,3.7,6.9,42,0.00,CLR,,0.00,WeatherDisplay:10.37,2013-09-11 00:27:00,
2013-09-10 19:28:00,83.9,58.3,29.89,SW,236,2.3,4.6,42,0.00,CLR,,0.00,WeatherDisplay:10.37,2013-09-11 00:28:00,
2013-09-10 19:30:00,83.5,58.0,29.89,WSW,244,2.8,3.5,42,0.00,CLR,,0.00,WeatherDisplay:10.37,2013-09-11 00:30:00,
2013-09-10 19:31:00,83.5,58.0,29.89,West,274,3.3,5.8,42,0.00,CLR,,0.00,WeatherDisplay:10.37,2013-09-11 00:31:00,
2013-09-10 19:32:00,83.4,58.6,29.89,West,274,0.7,5.8,43,0.00,CLR,,0.00,WeatherDisplay:10.37,2013-09-11 00:32:00,
2013-09-10 19:33:00,83.4,58.6,29.89,SW,223,1.4,3.4,43,0.00,CLR,,0.00,WeatherDisplay:10.37,2013-09-11 00:33:00,
2013-09-10 19:36:00,83.4,58.6,29.89,WSW,251,3.6,5.8,43,0.00,CLR,,0.00,WeatherDisplay:10.37,2013-09-11 00:36:00,
2013-09-10 19:37:00,83.3,58.5,29.89,SW,229,2.9,4.6,43,0.00,CLR,,0.00,WeatherDisplay:10.37,2013-09-11 00:37:00,
2013-09-10 19:38:00,83.3,58.5,29.89,SW,232,3.2,5.8,43,0.00,CLR,,0.00,WeatherDisplay:10.37,2013-09-11 00:38:00,
2013-09-10 19:41:00,83.1,58.3,29.89,SW,226,2.6,4.6,43,0.00,CLR,,0.00,WeatherDisplay:10.37,2013-09-11 00:41:00,
2013-09-10 19:42:00,83.1,58.3,29.89,WSW,237,3.3,4.6,43,0.00,CLR,,0.00,WeatherDisplay:10.37,2013-09-11 00:42:00,
2013-09-10 19:43:00,83.0,58.2,29.89,SSW,198,2.8,6.9,43,0.00,CLR,,0.00,WeatherDisplay:10.37,2013-09-11 00:43:00,
2013-09-10 19:44:00,83.0,58.2,29.89,SW,224,3.0,4.6,43,0.00,CLR,,0.00,WeatherDisplay:10.37,2013-09-11 00:44:00,
2013-09-10 19:46:00,82.9,58.7,29.90,WSW,243,2.4,4.6,44,0.00,CLR,,0.00,WeatherDisplay:10.37,2013-09-11 00:46:00,
2013-09-10 19:47:00,82.9,58.7,29.89,SW,216,3.9,5.8,44,0.00,CLR,,0.00,WeatherDisplay:10.37,2013-09-11 00:47:00,
2013-09-10 19:48:00,82.9,58.7,29.89,SSW,192,1.7,4.6,44,0.00,CLR,,0.00,WeatherDisplay:10.37,2013-09-11 00:48:00,
2013-09-10 19:49:00,82.8,58.7,29.89,WSW,241,2.0,4.6,44,0.00,CLR,,0.00,WeatherDisplay:10.37,2013-09-11 00:49:00,
2013-09-10 19:51:00,82.8,58.7,29.89,SSW,205,1.9,3.5,44,0.00,CLR,,0.00,WeatherDisplay:10.37,2013-09-11 00:51:00,
2013-09-10 19:53:00,82.7,58.6,29.90,South,191,1.6,3.5,44,0.00,CLR,,0.00,WeatherDisplay:10.37,2013-09-11 00:53:00,
2013-09-10 19:54:00,82.7,58.6,29.90,SW,220,2.3,4.6,44,0.00,CLR,,0.00,WeatherDisplay:10.37,2013-09-11 00:54:00,
2013-09-10 19:57:00,82.6,58.5,29.90,South,171,1.6,3.5,44,0.00,CLR,,0.00,WeatherDisplay:10.37,2013-09-11 00:57:00,
2013-09-10 19:59:00,82.4,58.3,29.90,WSW,241,0.9,3.5,44,0.00,CLR,,0.00,WeatherDisplay:10.37,2013-09-11 00:59:00,
2013-09-10 20:02:00,82.4,58.3,29.90,SSW,192,2.3,4.6,44,0.00,CLR,,0.00,WeatherDisplay:10.37,2013-09-11 01:02:00,
2013-09-10 20:04:00,82.4,58.3,29.90,SW,227,3.0,4.6,44,0.00,CLR,,0.00,WeatherDisplay:10.37,2013-09-11 01:04:00,
2013-09-10 20:05:00,82.4,58.3,29.90,SSW,212,1.7,4.2,44,0.00,CLR,,0.00,WeatherDisplay:10.37,2013-09-11 01:05:00,
2013-09-10 20:07:00,82.4,58.3,29.90,WSW,241,0.1,3.5,44,0.00,CLR,,0.00,WeatherDisplay:10.37,2013-09-11 01:07:00,
2013-09-10 20:09:00,82.4,58.3,29.90,SSW,200,1.2,3.5,44,0.00,CLR,,0.00,WeatherDisplay:10.37,2013-09-11 01:09:00,
2013-09-10 20:10:00,82.3,58.2,29.90,SW,236,1.2,4.6,44,0.00,CLR,,0.00,WeatherDisplay:10.37,2013-09-11 01:10:00,
2013-09-10 20:12:00,82.2,58.1,29.90,SSW,205,1.5,3.5,44,0.00,CLR,,0.00,WeatherDisplay:10.37,2013-09-11 01:12:00,
2013-09-10 20:14:00,82.3,58.2,29.90,SSW,203,2.5,3.5,44,0.00,CLR,,0.00,WeatherDisplay:10.37,2013-09-11 01:14:00,
2013-09-10 20:15:00,82.4,58.3,29.90,SSW,203,0.3,3.5,44,0.00,CLR,,0.00,WeatherDisplay:10.37,2013-09-11 01:15:00,
2013-09-10 20:16:00,82.2,58.7,29.91,SW,224,0.7,4.0,45,0.00,CLR,,0.00,WeatherDisplay:10.37,2013-09-11 01:16:00,
2013-09-10 20:18:00,82.2,58.7,29.91,SW,226,3.4,5.8,45,0.00,CLR,,0.00,WeatherDisplay:10.37,2013-09-11 01:18:00,
2013-09-10 20:19:00,82.1,58.7,29.91,SSW,206,3.6,5.8,45,0.00,CLR,,0.00,WeatherDisplay:10.37,2013-09-11 01:19:00,
2013-09-10 20:20:00,82.1,58.7,29.91,SSW,200,0.7,4.6,45,0.00,CLR,,0.00,WeatherDisplay:10.37,2013-09-11 01:20:00,
2013-09-10 20:21:00,82.2,58.7,29.91,SSW,200,0.0,1.2,45,0.00,CLR,,0.00,WeatherDisplay:10.37,2013-09-11 01:21:00,
2013-09-10 20:24:00,82.0,58.6,29.91,SSW,192,0.0,0.0,45,0.00,CLR,,0.00,WeatherDisplay:10.37,2013-09-11 01:24:00,
2013-09-10 20:25:00,82.0,58.6,29.91,SSW,192,0.0,0.0,45,0.00,CLR,,0.00,WeatherDisplay:10.37,2013-09-11 01:25:00,
2013-09-10 20:28:00,81.8,59.0,29.91,SSW,212,2.0,2.3,46,0.00,CLR,,0.00,WeatherDisplay:10.37,2013-09-11 01:28:00,
2013-09-10 20:29:00,81.8,59.0,29.91,SSW,196,1.4,2.3,46,0.00,CLR,,0.00,WeatherDisplay:10.37,2013-09-11 01:29:00,
2013-09-10 20:30:00,81.7,58.9,29.91,SW,216,1.4,2.7,46,0.00,CLR,,0.00,WeatherDisplay:10.37,2013-09-11 01:30:00,
2013-09-10 20:34:00,81.7,58.9,29.91,SW,222,2.5,4.5,46,0.00,CLR,,0.00,WeatherDisplay:10.37,2013-09-11 01:34:00,
2013-09-10 20:35:00,81.6,58.8,29.91,SW,220,3.8,4.6,46,0.00,CLR,,0.00,WeatherDisplay:10.37,2013-09-11 01:35:00,
2013-09-10 20:36:00,81.6,58.8,29.91,SW,234,2.4,4.6,46,0.00,CLR,,0.00,WeatherDisplay:10.37,2013-09-11 01:36:00,
2013-09-10 20:39:00,81.5,58.7,29.91,SW,217,3.7,5.8,46,0.00,CLR,,0.00,WeatherDisplay:10.37,2013-09-11 01:39:00,
2013-09-10 20:40:00,81.5,58.7,29.91,SW,224,3.6,5.8,46,0.00,CLR,,0.00,WeatherDisplay:10.37,2013-09-11 01:40:00,
2013-09-10 20:41:00,81.5,58.7,29.91,SSW,213,3.5,5.8,46,0.00,CLR,,0.00,WeatherDisplay:10.37,2013-09-11 01:41:00,
2013-09-10 20:45:00,81.5,58.7,29.92,NW,316,2.9,8.1,46,0.00,CLR,,0.00,WeatherDisplay:10.37,2013-09-11 01:45:00,
2013-09-10 20:46:00,81.4,58.6,29.92,NW,325,3.7,6.9,46,0.00,CLR,,0.00,WeatherDisplay:10.37,2013-09-11 01:46:00,
2013-09-10 20:50:00,81.5,58.7,29.92,NW,306,1.5,4.6,46,0.00,CLR,,0.00,WeatherDisplay:10.37,2013-09-11 01:50:00,
2013-09-10 20:51:00,81.5,58.7,29.92,WSW,251,3.3,6.9,46,0.00,CLR,,0.00,WeatherDisplay:10.37,2013-09-11 01:51:00,
2013-09-10 20:55:00,81.6,58.8,29.92,WSW,248,0.1,3.5,46,0.00,CLR,,0.00,WeatherDisplay:10.37,2013-09-11 01:55:00,
2013-09-10 20:56:00,81.7,58.9,29.92,WSW,248,0.0,0.0,46,0.00,CLR,,0.00,WeatherDisplay:10.37,2013-09-11 01:56:00,
2013-09-10 20:57:00,81.6,58.8,29.92,WSW,248,0.0,0.0,46,0.00,CLR,,0.00,WeatherDisplay:10.37,2013-09-11 01:57:00,
2013-09-10 21:00:00,81.7,58.9,29.93,West,278,0.5,2.3,46,0.00,CLR,,0.00,WeatherDisplay:10.37,2013-09-11 02:00:00,
2013-09-10 21:01:00,81.6,58.8,29.93,NNW,333,0.7,2.3,46,0.00,CLR,,0.00,WeatherDisplay:10.37,2013-09-11 02:01:00,
2013-09-10 21:02:00,81.8,59.0,29.93,West,281,2.0,2.3,46,0.00,CLR,,0.00,WeatherDisplay:10.37,2013-09-11 02:02:00,
2013-09-10 21:03:00,81.7,58.9,29.93,SSW,203,1.8,5.8,46,0.00,CLR,,0.00,WeatherDisplay:10.37,2013-09-11 02:03:00,
2013-09-10 21:05:00,81.7,58.9,29.93,SSW,210,2.7,3.5,46,0.00,CLR,,0.00,WeatherDisplay:10.37,2013-09-11 02:05:00,
2013-09-10 21:06:00,81.6,58.8,29.93,SSW,202,1.4,3.5,46,0.00,CLR,,0.00,WeatherDisplay:10.37,2013-09-11 02:06:00,
2013-09-10 21:07:00,81.6,58.8,29.93,WSW,244,0.9,2.3,46,0.00,CLR,,0.00,WeatherDisplay:10.37,2013-09-11 02:07:00,
2013-09-10 21:08:00,81.7,58.9,29.93,SW,236,1.1,2.3,46,0.00,CLR,,0.00,WeatherDisplay:10.37,2013-09-11 02:08:00,
2013-09-10 21:10:00,81.7,58.9,29.93,SSW,198,0.0,0.0,46,0.00,CLR,,0.00,WeatherDisplay:10.37,2013-09-11 02:10:00,
2013-09-10 21:11:00,81.5,58.7,29.93,SSW,198,0.0,0.0,46,0.00,CLR,,0.00,WeatherDisplay:10.37,2013-09-11 02:11:00,
2013-09-10 21:12:00,81.6,58.8,29.93,SSW,198,0.0,0.0,46,0.00,CLR,,0.00,WeatherDisplay:10.37,2013-09-11 02:12:00,
2013-09-10 21:13:00,81.4,58.6,29.93,SSW,198,0.0,0.0,46,0.00,CLR,,0.00,WeatherDisplay:10.37,2013-09-11 02:13:00,
2013-09-10 21:15:00,81.5,58.7,29.93,SSW,198,0.0,0.0,46,0.00,CLR,,0.00,WeatherDisplay:10.37,2013-09-11 02:15:00,
2013-09-10 21:17:00,81.5,58.7,29.93,SSW,198,0.0,0.0,46,0.00,CLR,,0.00,WeatherDisplay:10.37,2013-09-11 02:17:00,
2013-09-10 21:18:00,81.3,58.5,29.93,NW,308,0.1,1.2,46,0.00,CLR,,0.00,WeatherDisplay:10.37,2013-09-11 02:18:00,
2013-09-10 21:19:00,81.3,59.1,29.93,NW,308,0.0,0.0,47,0.00,CLR,,0.00,WeatherDisplay:10.37,2013-09-11 02:19:00,
2013-09-10 21:21:00,81.3,59.1,29.93,SW,217,0.8,2.3,47,0.00,CLR,,0.00,WeatherDisplay:10.37,2013-09-11 02:21:00,
2013-09-10 21:22:00,81.3,59.1,29.93,SW,223,0.0,2.3,47,0.00,CLR,,0.00,WeatherDisplay:10.37,2013-09-11 02:22:00,
2013-09-10 21:23:00,81.2,59.1,29.93,SW,223,0.0,0.0,47,0.00,CLR,,0.00,WeatherDisplay:10.37,2013-09-11 02:23:00,
2013-09-10 21:24:00,81.2,59.1,29.93,SW,223,0.0,0.0,47,0.00,CLR,,0.00,WeatherDisplay:10.37,2013-09-11 02:24:00,
2013-09-10 21:26:00,81.0,59.5,29.93,SW,223,0.0,0.0,48,0.00,CLR,,0.00,WeatherDisplay:10.37,2013-09-11 02:26:00,
2013-09-10 21:27:00,80.8,59.3,29.93,SW,223,0.0,0.0,48,0.00,CLR,,0.00,WeatherDisplay:10.37,2013-09-11 02:27:00,
2013-09-10 21:29:00,80.9,59.4,29.93,SW,223,0.0,0.0,48,0.00,CLR,,0.00,WeatherDisplay:10.37,2013-09-11 02:29:00,
2013-09-10 21:31:00,80.6,59.1,29.92,SW,223,0.0,0.0,48,0.00,CLR,,0.00,WeatherDisplay:10.37,2013-09-11 02:31:00,
2013-09-10 21:33:00,80.4,58.9,29.92,SW,223,0.0,0.0,48,0.00,CLR,,0.00,WeatherDisplay:10.37,2013-09-11 02:33:00,
2013-09-10 21:34:00,80.4,59.5,29.92,SW,223,0.0,0.0,49,0.00,CLR,,0.00,WeatherDisplay:10.37,2013-09-11 02:34:00,
2013-09-10 21:35:00,80.3,59.4,29.92,SW,223,0.0,0.0,49,0.00,CLR,,0.00,WeatherDisplay:10.37,2013-09-11 02:35:00,
2013-09-10 21:36:00,80.4,59.5,29.92,SW,223,0.0,0.0,49,0.00,CLR,,0.00,WeatherDisplay:10.37,2013-09-11 02:36:00,
2013-09-10 21:38:00,80.3,59.4,29.92,SW,223,0.0,0.0,49,0.00,CLR,,0.00,WeatherDisplay:10.37,2013-09-11 02:38:00,
2013-09-10 21:39:00,80.2,59.3,29.92,SW,223,0.0,0.0,49,0.00,CLR,,0.00,WeatherDisplay:10.37,2013-09-11 02:39:00,
2013-09-10 21:40:00,80.0,59.1,29.92,SW,223,0.0,0.0,49,0.00,CLR,,0.00,WeatherDisplay:10.37,2013-09-11 02:40:00,
2013-09-10 21:41:00,80.1,59.8,29.92,SW,223,0.0,0.0,50,0.00,CLR,,0.00,WeatherDisplay:10.37,2013-09-11 02:41:00,
2013-09-10 21:43:00,80.0,59.7,29.92,SW,223,0.0,0.0,50,0.00,CLR,,0.00,WeatherDisplay:10.37,2013-09-11 02:43:00,
2013-09-10 21:44:00,79.9,59.6,29.92,SW,223,0.0,0.0,50,0.00,CLR,,0.00,WeatherDisplay:10.37,2013-09-11 02:44:00,
2013-09-10 21:46:00,79.8,59.5,29.92,SW,223,0.0,0.0,50,0.00,CLR,,0.00,WeatherDisplay:10.37,2013-09-11 02:46:00,
2013-09-10 21:47:00,79.7,59.4,29.92,SW,223,0.0,0.0,50,0.00,CLR,,0.00,WeatherDisplay:10.37,2013-09-11 02:47:00,
2013-09-10 21:48:00,79.5,59.2,29.93,SW,223,0.0,0.0,50,0.00,CLR,,0.00,WeatherDisplay:10.37,2013-09-11 02:48:00,
2013-09-10 21:49:00,79.4,59.7,29.93,SW,223,0.0,0.0,51,0.00,CLR,,0.00,WeatherDisplay:10.37,2013-09-11 02:49:00,
2013-09-10 21:51:00,79.4,59.7,29.93,SW,223,0.0,0.0,51,0.00,CLR,,0.00,WeatherDisplay:10.37,2013-09-11 02:51:00,
2013-09-10 21:52:00,79.3,59.6,29.93,SW,223,0.0,0.0,51,0.00,CLR,,0.00,WeatherDisplay:10.37,2013-09-11 02:52:00,
2013-09-10 21:53:00,79.3,59.6,29.93,SW,223,0.0,0.0,51,0.00,CLR,,0.00,WeatherDisplay:10.37,2013-09-11 02:53:00,
2013-09-10 21:54:00,79.2,59.5,29.93,SW,223,0.0,0.0,51,0.00,CLR,,0.00,WeatherDisplay:10.37,2013-09-11 02:54:00,
2013-09-10 21:56:00,79.1,60.0,29.93,SW,223,0.0,0.0,52,0.00,CLR,,0.00,WeatherDisplay:10.37,2013-09-11 02:56:00,
2013-09-10 21:57:00,79.1,60.0,29.93,SW,223,0.0,0.0,52,0.00,CLR,,0.00,WeatherDisplay:10.37,2013-09-11 02:57:00,
2013-09-10 21:58:00,79.0,59.9,29.93,SW,223,0.0,0.0,52,0.00,CLR,,0.00,WeatherDisplay:10.37,2013-09-11 02:58:00,
2013-09-10 21:59:00,78.9,59.8,29.93,SW,223,0.0,0.0,52,0.00,CLR,,0.00,WeatherDisplay:10.37,2013-09-11 02:59:00,
2013-09-10 22:01:00,78.8,59.7,29.93,SW,223,0.0,0.0,52,0.00,CLR,,0.00,WeatherDisplay:10.37,2013-09-11 03:01:00,
2013-09-10 22:02:00,78.8,59.7,29.93,SW,223,0.0,0.0,52,0.00,CLR,,0.00,WeatherDisplay:10.37,2013-09-11 03:02:00,
2013-09-10 22:03:00,78.7,59.6,29.93,SW,223,0.0,0.0,52,0.00,CLR,,0.00,WeatherDisplay:10.37,2013-09-11 03:03:00,
2013-09-10 22:04:00,78.5,59.4,29.92,SW,223,0.0,0.0,52,0.00,CLR,,0.00,WeatherDisplay:10.37,2013-09-11 03:04:00,
2013-09-10 22:07:00,78.5,59.9,29.92,SW,223,0.0,0.0,53,0.00,CLR,,0.00,WeatherDisplay:10.37,2013-09-11 03:07:00,
2013-09-10 22:08:00,78.4,59.9,29.92,SW,223,0.0,0.0,53,0.00,CLR,,0.00,WeatherDisplay:10.37,2013-09-11 03:08:00,
2013-09-10 22:09:00,78.3,59.8,29.92,SW,223,0.0,0.0,53,0.00,CLR,,0.00,WeatherDisplay:10.37,2013-09-11 03:09:00,
2013-09-10 22:12:00,78.1,59.6,29.92,SW,223,0.0,0.0,53,0.00,CLR,,0.00,WeatherDisplay:10.37,2013-09-11 03:12:00,
2013-09-10 22:13:00,78.1,59.6,29.92,SW,223,0.0,0.0,53,0.00,CLR,,0.00,WeatherDisplay:10.37,2013-09-11 03:13:00,
2013-09-10 22:14:00,77.9,59.4,29.93,SW,223,0.0,0.0,53,0.00,CLR,,0.00,WeatherDisplay:10.37,2013-09-11 03:14:00,
2013-09-10 22:17:00,77.8,59.3,29.93,SW,223,0.0,0.0,53,0.00,CLR,,0.00,WeatherDisplay:10.37,2013-09-11 03:17:00,
2013-09-10 22:19:00,77.7,59.2,29.93,SW,223,0.0,0.0,53,0.00,CLR,,0.00,WeatherDisplay:10.37,2013-09-11 03:19:00,
2013-09-10 22:20:00,77.4,59.5,29.93,SW,223,0.0,0.0,54,0.00,CLR,,0.00,WeatherDisplay:10.37,2013-09-11 03:20:00,
2013-09-10 22:22:00,77.3,59.4,29.93,SW,223,0.0,0.0,54,0.00,CLR,,0.00,WeatherDisplay:10.37,2013-09-11 03:22:00,
2013-09-10 22:24:00,77.2,59.3,29.93,SW,223,0.0,0.0,54,0.00,CLR,,0.00,WeatherDisplay:10.37,2013-09-11 03:24:00,
2013-09-10 22:26:00,77.2,59.3,29.93,SW,223,0.0,0.0,54,0.00,CLR,,0.00,WeatherDisplay:10.37,2013-09-11 03:26:00,
2013-09-10 22:27:00,77.0,59.6,29.93,SW,223,0.0,0.0,55,0.00,CLR,,0.00,WeatherDisplay:10.37,2013-09-11 03:27:00,
2013-09-10 22:29:00,76.9,59.5,29.93,SW,223,0.0,0.0,55,0.00,CLR,,0.00,WeatherDisplay:10.37,2013-09-11 03:29:00,
2013-09-10 22:30:00,76.9,59.5,29.93,SW,223,0.0,0.0,55,0.00,CLR,,0.00,WeatherDisplay:10.37,2013-09-11 03:30:00,
2013-09-10 22:31:00,76.8,59.4,29.93,SW,223,0.0,0.0,55,0.00,CLR,,0.00,WeatherDisplay:10.37,2013-09-11 03:31:00,
2013-09-10 22:32:00,76.8,59.4,29.92,SW,223,0.0,0.0,55,0.00,CLR,,0.00,WeatherDisplay:10.37,2013-09-11 03:32:00,
2013-09-10 22:35:00,76.5,59.6,29.93,SW,223,0.0,0.0,56,0.00,CLR,,0.00,WeatherDisplay:10.37,2013-09-11 03:35:00,
2013-09-10 22:36:00,76.5,59.6,29.93,SW,223,0.0,0.0,56,0.00,CLR,,0.00,WeatherDisplay:10.37,2013-09-11 03:36:00,
2013-09-10 22:37:00,76.4,59.5,29.93,SW,223,0.0,0.0,56,0.00,CLR,,0.00,WeatherDisplay:10.37,2013-09-11 03:37:00,
2013-09-10 22:40:00,76.1,58.8,29.92,SW,223,0.0,0.0,55,0.00,CLR,,0.00,WeatherDisplay:10.37,2013-09-11 03:40:00,
2013-09-10 22:41:00,76.1,58.8,29.93,SW,223,0.0,0.0,55,0.00,CLR,,0.00,WeatherDisplay:10.37,2013-09-11 03:41:00,
2013-09-10 22:42:00,76.1,58.8,29.93,SW,223,0.0,0.0,55,0.00,CLR,,0.00,WeatherDisplay:10.37,2013-09-11 03:42:00,
2013-09-10 22:45:00,75.9,59.1,29.93,SW,223,0.0,0.0,56,0.00,CLR,,0.00,WeatherDisplay:10.37,2013-09-11 03:45:00,
2013-09-10 22:46:00,75.9,59.1,29.93,SW,223,0.0,0.0,56,0.00,CLR,,0.00,WeatherDisplay:10.37,2013-09-11 03:46:00,
2013-09-10 22:47:00,75.8,59.0,29.92,SW,223,0.0,0.0,56,0.00,CLR,,0.00,WeatherDisplay:10.37,2013-09-11 03:47:00,
2013-09-10 22:48:00,75.8,59.0,29.92,SW,223,0.0,0.0,56,0.00,CLR,,0.00,WeatherDisplay:10.37,2013-09-11 03:48:00,
2013-09-10 22:51:00,75.5,58.7,29.93,SW,223,0.0,0.0,56,0.00,CLR,,0.00,WeatherDisplay:10.37,2013-09-11 03:51:00,
2013-09-10 22:52:00,75.5,59.2,29.92,SW,223,0.0,0.0,57,0.00,CLR,,0.00,WeatherDisplay:10.37,2013-09-11 03:52:00,
2013-09-10 22:53:00,75.3,59.0,29.92,SW,223,0.0,0.0,57,0.00,CLR,,0.00,WeatherDisplay:10.37,2013-09-11 03:53:00,
2013-09-10 22:56:00,75.2,59.4,29.92,SW,223,0.0,0.0,58,0.00,CLR,,0.00,WeatherDisplay:10.37,2013-09-11 03:56:00,
2013-09-10 22:57:00,75.1,59.3,29.92,SW,223,0.0,0.0,58,0.00,CLR,,0.00,WeatherDisplay:10.37,2013-09-11 03:57:00,
2013-09-10 22:58:00,75.0,59.7,29.92,SW,223,0.0,0.0,59,0.00,CLR,,0.00,WeatherDisplay:10.37,2013-09-11 03:58:00,
2013-09-10 23:01:00,74.9,60.1,29.93,SW,223,0.0,0.0,60,0.00,CLR,,0.00,WeatherDisplay:10.37,2013-09-11 04:01:00,
2013-09-10 23:02:00,74.8,59.5,29.93,SW,223,0.0,0.0,59,0.00,CLR,,0.00,WeatherDisplay:10.37,2013-09-11 04:02:00,
2013-09-10 23:06:00,74.6,59.8,29.93,SW,223,0.0,0.0,60,0.00,CLR,,0.00,WeatherDisplay:10.37,2013-09-11 04:06:00,
2013-09-10 23:07:00,74.4,59.6,29.93,SW,223,0.0,0.0,60,0.00,CLR,,0.00,WeatherDisplay:10.37,2013-09-11 04:07:00,
2013-09-10 23:09:00,74.4,59.6,29.93,SW,223,0.0,0.0,60,0.00,CLR,,0.00,WeatherDisplay:10.37,2013-09-11 04:09:00,
2013-09-10 23:11:00,74.3,59.5,29.93,SW,223,0.0,0.0,60,0.00,CLR,,0.00,WeatherDisplay:10.37,2013-09-11 04:11:00,
2013-09-10 23:12:00,74.3,59.5,29.93,SW,223,0.0,0.0,60,0.00,CLR,,0.00,WeatherDisplay:10.37,2013-09-11 04:12:00,
2013-09-10 23:13:00,74.2,59.9,29.93,SW,223,0.0,0.0,61,0.00,CLR,,0.00,WeatherDisplay:10.37,2013-09-11 04:13:00,
2013-09-10 23:15:00,74.2,59.9,29.93,SW,223,0.0,0.0,61,0.00,CLR,,0.00,WeatherDisplay:10.37,2013-09-11 04:15:00,
2013-09-10 23:16:00,74.0,59.7,29.93,SW,223,0.0,0.0,61,0.00,CLR,,0.00,WeatherDisplay:10.37,2013-09-11 04:16:00,
2013-09-10 23:18:00,74.0,60.2,29.93,SW,223,0.0,0.0,62,0.00,CLR,,0.00,WeatherDisplay:10.37,2013-09-11 04:18:00,
2013-09-10 23:21:00,73.7,59.9,29.93,SW,223,0.0,0.0,62,0.00,CLR,,0.00,WeatherDisplay:10.37,2013-09-11 04:21:00,
2013-09-10 23:22:00,73.8,60.0,29.93,SW,223,0.0,0.0,62,0.00,CLR,,0.00,WeatherDisplay:10.37,2013-09-11 04:22:00,
2013-09-10 23:23:00,73.8,60.0,29.93,SW,223,0.0,0.0,62,0.00,CLR,,0.00,WeatherDisplay:10.37,2013-09-11 04:23:00,
2013-09-10 23:24:00,73.9,60.1,29.93,SW,223,0.0,0.0,62,0.00,CLR,,0.00,WeatherDisplay:10.37,2013-09-11 04:24:00,
2013-09-10 23:26:00,73.5,59.7,29.93,SW,223,0.0,0.0,62,0.00,CLR,,0.00,WeatherDisplay:10.37,2013-09-11 04:26:00,
2013-09-10 23:27:00,73.7,59.9,29.93,SW,223,0.0,0.0,62,0.00,CLR,,0.00,WeatherDisplay:10.37,2013-09-11 04:27:00,
2013-09-10 23:29:00,73.6,59.3,29.93,SW,223,0.0,0.0,61,0.00,CLR,,0.00,WeatherDisplay:10.37,2013-09-11 04:29:00,
2013-09-10 23:30:00,73.6,59.3,29.93,SW,223,0.0,0.0,61,0.00,CLR,,0.00,WeatherDisplay:10.37,2013-09-11 04:30:00,
2013-09-10 23:31:00,73.6,59.8,29.93,SW,223,0.0,0.0,62,0.00,CLR,,0.00,WeatherDisplay:10.37,2013-09-11 04:31:00,
2013-09-10 23:33:00,73.3,59.5,29.93,SW,223,0.0,0.0,62,0.00,CLR,,0.00,WeatherDisplay:10.37,2013-09-11 04:33:00,
2013-09-10 23:35:00,73.4,60.0,29.94,SW,223,0.0,0.0,63,0.00,CLR,,0.00,WeatherDisplay:10.37,2013-09-11 04:35:00,
2013-09-10 23:36:00,73.4,60.0,29.94,SW,223,0.0,0.0,63,0.00,CLR,,0.00,WeatherDisplay:10.37,2013-09-11 04:36:00,
2013-09-10 23:37:00,73.4,60.5,29.94,SW,223,0.0,0.0,64,0.00,CLR,,0.00,WeatherDisplay:10.37,2013-09-11 04:37:00,
2013-09-10 23:38:00,73.5,60.6,29.94,SW,223,0.0,0.0,64,0.00,CLR,,0.00,WeatherDisplay:10.37,2013-09-11 04:38:00,
2013-09-10 23:40:00,73.3,60.4,29.94,SW,223,0.0,0.0,64,0.00,CLR,,0.00,WeatherDisplay:10.37,2013-09-11 04:40:00,
2013-09-10 23:41:00,73.4,60.9,29.94,SW,223,0.0,0.0,65,0.00,CLR,,0.00,WeatherDisplay:10.37,2013-09-11 04:41:00,
2013-09-10 23:42:00,73.4,60.9,29.94,SW,223,0.0,0.0,65,0.00,CLR,,0.00,WeatherDisplay:10.37,2013-09-11 04:42:00,
2013-09-10 23:43:00,73.4,60.9,29.94,SW,223,0.0,0.0,65,0.00,CLR,,0.00,WeatherDisplay:10.37,2013-09-11 04:43:00,
2013-09-10 23:45:00,73.2,60.7,29.94,NNW,346,0.8,2.4,65,0.00,CLR,,0.00,WeatherDisplay:10.37,2013-09-11 04:45:00,
2013-09-10 23:46:00,73.4,61.3,29.94,West,272,1.1,2.3,66,0.00,CLR,,0.00,WeatherDisplay:10.37,2013-09-11 04:46:00,
2013-09-10 23:47:00,73.5,61.4,29.94,WSW,250,1.1,2.3,66,0.00,CLR,,0.00,WeatherDisplay:10.37,2013-09-11 04:47:00,
2013-09-10 23:48:00,73.5,61.4,29.94,SW,215,0.0,0.0,66,0.00,CLR,,0.00,WeatherDisplay:10.37,2013-09-11 04:48:00,
2013-09-10 23:50:00,73.6,61.5,29.94,NNE,17,1.9,3.5,66,0.00,CLR,,0.00,WeatherDisplay:10.37,2013-09-11 04:50:00,
2013-09-10 23:51:00,73.6,61.5,29.94,WSW,239,0.7,3.5,66,0.00,CLR,,0.00,WeatherDisplay:10.37,2013-09-11 04:51:00,
2013-09-10 23:52:00,73.6,61.5,29.94,SW,223,0.9,3.5,66,0.00,CLR,,0.00,WeatherDisplay:10.37,2013-09-11 04:52:00,
2013-09-10 23:53:00,73.6,61.5,29.94,SW,223,0.4,1.2,66,0.00,CLR,,0.00,WeatherDisplay:10.37,2013-09-11 04:53:00,
2013-09-10 23:55:00,73.8,61.7,29.94,NNW,342,1.1,2.3,66,0.00,CLR,,0.00,WeatherDisplay:10.37,2013-09-11 04:55:00,
2013-09-10 23:57:00,73.7,61.6,29.94,NNE,31,0.0,2.3,66,0.00,CLR,,0.00,WeatherDisplay:10.37,2013-09-11 04:57:00,
2013-09-10 23:59:00,73.5,61.4,29.94,NNE,31,0.0,0.0,66,0.00,CLR,,0.00,WeatherDisplay:10.37,2013-09-11 04:59:00,